GFSGBSN_850_spd_000.txt.gz
Wind_Speed
3 4 6 8 9 10 10 9 7 7 6 5 5 6 8 9 10 13 18 20 19 13 9 8 12 14 10 8 6 4 6 8 10 8 8 7 7 5 5 10 15 13 11 9 5 5 4
2 3 5 7 9 8 6 5 4 3 3 4 5 6 8 11 15 19 22 21 16 12 9 9 11 12 7 8 6 5 2 5 5 6 5 4 4 8 8 6 1 6 8 7 3 5 4
1 2 5 7 8 5 3 2 2 3 4 6 8 10 13 17 21 22 23 20 15 12 10 10 12 13 7 5 4 3 0 2 2 4 5 8 9 3 7 9 5 8 10 6 7 4 3
1 2 5 7 7 4 4 5 7 10 11 13 14 16 18 20 22 24 23 17 15 12 11 12 15 13 6 6 3 0 3 4 3 5 8 9 12 9 4 7 5 5 4 5 7 1 3
1 2 4 7 6 4 6 8 10 12 12 14 15 16 17 19 22 24 20 17 13 11 10 11 9 7 7 3 2 1 9 7 6 9 10 8 8 6 4 6 6 2 2 1 7 4 4
2 2 4 6 5 4 7 9 11 11 13 14 16 17 18 18 20 19 17 15 11 8 9 9 7 9 4 4 1 5 8 10 6 8 5 3 4 4 4 3 1 1 3 3 1 6 6
3 2 4 5 5 5 7 9 11 12 15 16 16 16 16 17 17 17 17 14 10 10 11 7 8 9 6 4 11 5 8 7 5 5 3 6 4 7 7 6 3 1 2 2 3 4 6
4 3 3 5 5 4 7 9 11 13 15 16 15 14 14 15 16 16 13 4 8 13 13 12 14 13 11 7 8 11 5 2 2 5 4 4 8 4 4 4 2 2 2 1 2 1 5
5 4 3 5 6 4 7 10 11 13 15 15 14 14 12 12 12 12 11 10 16 9 8 9 9 5 3 12 9 12 8 6 8 8 4 5 6 2 2 6 5 1 2 4 4 4 3
6 5 4 4 5 5 6 10 12 13 15 15 14 12 11 12 10 13 11 11 10 4 3 3 2 5 3 3 6 11 6 2 3 8 8 8 3 2 2 5 7 1 3 8 7 6 4
6 5 4 5 5 5 4 9 12 14 16 16 15 12 10 8 12 8 11 8 7 1 3 1 5 5 8 5 0 13 9 9 6 5 4 4 5 5 6 4 6 5 8 5 4 6 4
7 5 4 4 6 6 4 7 10 14 16 16 15 12 9 7 10 10 8 5 2 3 3 4 2 4 8 13 7 5 7 10 4 8 10 6 3 4 5 3 2 6 3 1 1 2 4
7 5 4 4 5 7 5 6 9 11 17 17 16 13 10 9 8 10 7 3 4 3 1 6 6 4 7 6 7 11 14 12 5 2 3 3 5 2 7 3 4 8 2 2 2 4 1
8 5 3 4 5 7 7 7 9 10 15 18 17 14 11 9 9 8 6 3 4 2 1 3 6 7 4 3 6 6 5 10 13 6 3 2 4 8 9 5 6 7 6 3 3 2 4
10 7 4 3 5 6 8 8 10 11 13 17 18 15 12 10 7 8 5 2 3 5 6 8 8 4 4 4 2 3 8 5 9 10 4 2 3 3 6 6 5 3 4 2 2 1 3
11 8 5 3 5 6 8 8 11 11 13 17 17 14 11 10 8 7 1 2 2 1 3 4 4 1 4 4 2 2 3 4 2 7 4 2 2 2 1 3 8 4 3 2 2 3 4
12 9 6 4 4 7 7 8 11 12 15 15 16 7 9 10 9 3 2 3 4 2 1 2 4 4 5 4 4 3 3 3 3 3 5 4 3 2 3 2 2 3 2 2 1 2 3
14 10 7 5 4 7 7 8 10 13 13 12 6 4 10 13 4 2 3 4 4 4 4 4 5 6 4 3 4 3 3 2 2 2 2 4 1 2 1 2 3 2 1 1 2 2 2
14 11 8 6 4 5 6 8 9 13 13 9 5 5 7 12 3 3 4 4 4 3 3 3 3 2 3 4 4 4 3 3 3 1 3 1 0 2 3 4 3 4 2 2 1 1 8
15 12 10 7 5 5 6 6 8 11 11 9 5 3 3 3 3 9 10 5 5 6 5 7 5 7 7 5 3 6 5 3 1 1 1 1 2 4 4 6 4 6 6 6 8 5 8
17 14 11 8 5 5 6 5 5 7 8 8 3 2 3 4 4 11 6 6 11 5 3 3 4 3 5 4 4 4 3 4 2 2 1 2 3 3 7 10 13 11 13 12 14 14 10
17 14 11 9 6 4 5 5 4 5 6 4 4 4 4 4 7 12 1 7 9 5 3 4 7 7 5 5 2 5 3 3 1 4 1 2 1 3 4 8 10 12 14 14 13 12 13
18 15 12 10 8 6 5 5 5 4 4 3 4 8 5 1 3 3 3 7 9 9 5 5 15 10 8 8 5 6 5 5 3 1 2 1 1 1 4 9 13 6 3 4 4 4 8
18 17 14 12 10 8 5 5 5 5 5 5 5 7 4 3 2 3 8 6 12 4 8 9 7 6 4 8 8 8 10 7 5 4 1 4 3 1 3 5 3 3 5 9 13 13 8
19 16 15 13 12 10 8 6 5 6 5 5 8 4 3 3 4 5 10 11 11 10 10 9 4 7 11 4 2 3 2 2 4 7 4 2 3 2 2 4 14 12 4 2 2 11 3
17 17 15 14 13 11 10 8 7 6 6 6 6 6 4 12 5 7 8 12 6 5 5 4 7 12 5 3 2 2 1 1 3 4 4 5 4 2 3 4 4 3 3 4 4 8 3
16 17 15 14 13 13 11 9 8 8 8 8 7 6 5 6 8 11 4 7 7 6 5 5 6 3 3 2 2 2 2 2 2 2 4 2 2 4 6 6 7 6 5 1 3 3 14
17 17 16 15 14 14 12 11 9 9 9 9 9 8 6 4 12 9 9 11 9 8 5 9 6 2 3 3 3 3 2 3 3 2 3 3 2 4 3 4 6 2 2 2 5 12 6
16 17 17 16 14 14 13 12 11 10 9 9 8 8 8 5 8 11 9 10 10 11 11 13 1 6 7 4 2 3 3 1 1 4 4 5 6 4 7 6 6 11 11 7 7 6 7

GFSGBSN_850_spd_003.txt.gz
Wind_Speed
8 7 8 10 11 13 14 13 12 10 9 8 9 9 10 10 11 12 14 17 17 13 9 9 14 13 6 5 5 1 6 8 8 1 6 6 4 4 4 8 8 10 10 10 10 7 2
6 6 6 9 10 11 11 9 8 8 7 6 6 7 8 10 12 15 18 19 15 11 9 11 14 12 9 4 1 1 4 5 4 2 3 3 1 1 5 7 4 8 10 10 7 6 4
5 5 5 7 8 9 7 6 5 3 1 3 5 7 10 13 16 20 22 18 13 11 10 13 15 12 8 6 1 3 4 4 5 4 2 1 3 6 9 6 5 9 9 9 7 9 5
6 4 4 6 7 6 3 2 0 3 5 6 8 10 14 19 22 24 21 16 12 10 9 12 14 12 1 3 2 2 3 4 3 2 4 6 4 4 3 7 8 11 10 11 8 8 5
6 4 2 5 6 3 0 2 4 6 7 10 11 15 19 22 24 22 18 14 11 11 12 11 9 6 4 2 2 4 3 3 2 2 5 6 3 5 6 11 10 9 11 4 8 3 3
6 4 2 4 4 1 2 5 6 6 8 10 12 14 17 20 21 18 16 12 11 11 11 6 4 6 3 1 3 1 2 3 6 6 6 5 8 10 9 9 7 7 5 9 4 7 8
7 5 1 2 3 1 4 6 7 8 9 12 13 15 16 18 18 16 14 12 9 7 4 5 8 8 8 5 6 4 3 5 8 10 9 5 10 7 10 7 7 5 5 5 6 4 6
7 5 2 1 1 2 6 8 9 10 11 12 13 14 16 17 17 16 14 4 3 11 12 9 11 10 4 4 8 5 1 8 10 7 5 9 8 5 3 4 4 4 5 1 2 2 6
8 6 3 1 1 3 7 9 10 11 11 11 11 12 13 14 14 13 5 4 18 8 8 7 4 7 4 5 5 6 2 3 4 5 3 9 8 1 3 4 8 4 8 7 10 3 9
9 6 4 2 1 3 8 11 12 13 13 13 12 13 14 14 11 9 5 11 10 2 3 4 3 4 0 2 5 8 4 2 1 6 8 7 4 3 3 4 9 6 5 8 8 7 8
9 7 5 2 1 2 7 11 13 15 15 15 13 11 12 12 8 8 8 9 7 5 3 2 5 2 3 3 2 6 7 0 4 6 5 5 3 2 3 5 6 6 8 7 8 9 8
10 7 5 3 1 1 5 11 14 16 17 16 14 10 9 4 7 9 9 7 4 4 3 5 4 6 10 10 7 5 6 7 3 5 9 8 3 5 6 4 3 8 7 6 6 4 5
11 8 5 3 1 1 4 11 14 17 18 17 15 12 9 9 8 9 8 7 4 4 4 7 8 4 8 8 7 9 7 7 2 4 3 7 5 4 7 7 5 9 6 3 3 4 2
12 9 6 4 2 1 2 10 12 17 20 18 16 13 10 8 8 9 6 6 6 3 7 6 9 9 5 6 4 4 4 9 11 6 2 3 7 7 7 6 7 6 7 3 4 3 5
13 10 7 5 3 2 2 9 11 15 20 19 17 13 8 9 8 8 10 6 4 7 8 12 13 9 7 5 2 4 10 8 8 10 5 3 4 5 5 6 7 4 4 3 2 1 3
14 11 8 6 4 3 4 9 11 14 19 20 13 12 9 10 7 8 6 2 3 2 5 13 7 4 6 7 5 3 2 4 4 8 6 3 2 2 4 4 5 9 3 3 2 3 4
14 11 9 7 5 5 5 9 12 14 19 21 13 11 9 10 9 10 5 3 7 6 2 3 3 4 6 5 3 3 3 5 3 4 5 7 3 5 3 3 8 1 2 3 4 4 4
15 12 9 7 6 5 7 8 12 16 19 17 10 5 12 13 10 7 5 6 5 9 4 3 3 4 5 4 3 3 4 5 3 5 4 6 2 2 5 3 3 4 4 3 2 2 2
17 13 10 8 7 6 7 8 13 16 18 10 6 7 11 15 4 3 5 6 4 7 3 4 3 1 3 5 3 6 5 5 4 5 7 6 1 3 5 6 4 4 2 1 2 1 8
17 14 11 8 7 7 7 8 12 15 15 8 6 3 6 9 5 9 9 9 7 4 5 4 6 7 8 5 3 7 7 4 2 5 4 3 1 3 5 8 5 6 7 7 8 6 9
18 16 12 8 7 6 7 7 9 12 13 8 2 2 5 7 7 9 10 10 11 6 3 7 4 4 7 4 6 4 6 7 3 2 1 3 2 5 9 11 9 10 12 12 13 13 11
19 15 12 10 7 6 6 6 7 9 11 4 4 4 3 3 8 10 5 10 13 6 8 7 7 7 5 6 2 6 4 2 2 4 1 2 1 4 4 6 7 12 14 16 12 8 13
18 16 13 11 9 7 6 6 6 7 7 3 4 9 6 3 9 8 7 10 10 11 2 4 12 8 10 9 10 9 8 5 4 2 2 2 1 3 4 10 11 6 3 3 5 8 7
20 17 14 12 10 8 7 6 6 6 6 5 7 6 5 4 8 8 8 10 12 7 9 12 9 9 7 10 12 11 11 7 4 4 2 4 1 2 3 6 2 5 7 13 9 9 10
21 18 16 14 12 10 9 8 7 7 7 6 9 5 4 3 7 7 11 15 12 13 15 13 6 8 11 3 2 2 2 3 2 5 4 1 3 2 2 5 14 12 4 5 7 12 12
21 19 17 15 13 12 10 9 9 9 8 8 7 6 3 13 5 12 13 16 11 8 8 5 7 7 4 3 2 2 2 1 5 6 5 4 2 3 3 3 4 3 2 4 6 9 8
19 20 17 15 14 13 12 10 10 10 9 10 8 7 5 6 6 12 9 11 8 11 6 8 8 4 3 2 1 2 3 2 3 3 4 2 2 5 6 5 8 8 3 5 4 3 7
17 18 18 16 15 13 12 11 11 11 10 10 9 8 6 5 8 7 8 10 8 11 5 12 7 3 3 2 3 3 1 3 3 2 4 6 6 4 3 4 6 3 4 2 10 15 6
16 16 17 16 15 14 13 12 11 11 11 10 4 8 7 6 7 11 11 12 11 7 8 14 2 8 9 3 3 2 2 0 1 3 4 4 6 4 8 6 10 8 10 14 9 7 7

GFSGBSN_850_spd_006.txt.gz
Wind_Speed
13 11 10 10 11 13 14 14 14 14 13 12 12 11 11 10 10 11 11 11 14 14 10 7 10 12 8 8 2 4 9 6 4 1 7 11 16 15 8 8 10 7 6 10 9 7 2
12 10 9 8 10 11 11 12 12 11 10 9 9 10 9 9 10 11 13 16 16 12 8 8 13 11 8 11 1 1 4 5 3 7 8 5 4 5 4 8 6 9 10 10 10 7 4
11 9 7 7 9 9 9 9 9 7 7 5 7 7 8 10 12 14 18 19 14 10 8 10 14 12 8 5 1 2 2 4 3 8 5 2 4 6 4 5 2 7 8 7 7 8 6
11 8 6 6 7 7 6 6 5 4 2 1 3 7 10 13 17 21 21 15 10 8 8 13 16 12 6 3 2 3 3 4 3 2 3 3 4 7 8 8 5 9 9 9 11 9 7
10 8 6 5 5 4 3 2 2 2 3 2 5 10 14 19 22 21 15 11 8 7 8 13 14 11 6 2 3 1 3 6 2 2 1 2 4 5 3 9 9 9 9 8 9 6 2
10 8 6 4 4 2 2 1 1 1 2 4 7 10 15 19 19 16 14 10 9 11 10 9 10 8 4 1 1 2 2 3 3 3 4 6 7 8 11 7 5 11 10 6 4 9 6
10 8 6 3 3 2 3 2 2 2 4 5 8 11 14 16 16 15 14 13 7 4 11 8 10 3 6 5 5 3 4 5 4 7 10 7 8 7 12 9 7 9 7 8 13 6 3
11 8 6 4 2 2 4 4 3 4 6 7 8 10 12 14 13 14 10 6 4 8 7 6 7 6 3 4 7 6 1 5 4 11 0 5 7 8 6 8 6 6 6 6 5 6 5
11 8 6 4 2 3 5 6 5 6 7 7 7 9 11 12 11 10 5 2 3 6 7 5 5 5 2 2 6 2 7 5 9 7 5 13 10 5 5 6 9 4 7 9 8 9 8
10 9 7 5 2 3 5 8 8 9 9 8 8 9 11 10 6 6 3 3 2 2 4 7 5 3 2 3 4 2 4 4 3 4 8 8 4 4 2 6 9 3 6 5 8 7 7
11 9 8 5 3 3 5 9 9 11 11 10 8 9 11 11 2 7 3 6 3 7 4 3 5 2 3 2 6 5 1 6 2 3 4 5 5 5 4 6 6 6 5 6 8 9 10
12 10 8 6 4 3 5 10 12 13 13 12 9 8 9 2 2 2 5 5 5 4 3 5 5 7 6 4 3 5 3 5 3 4 11 7 3 7 6 4 2 7 10 9 8 9 3
13 10 8 6 4 3 4 10 14 14 15 14 11 8 7 4 3 4 7 5 4 3 6 7 9 7 9 6 7 5 5 5 3 4 5 8 7 5 8 10 5 9 9 3 2 3 2
14 11 8 7 4 2 3 9 14 16 16 15 13 9 7 5 5 8 5 6 5 4 5 8 9 11 8 6 5 1 10 9 9 12 6 7 6 5 7 7 7 5 6 2 4 5 4
14 12 9 7 4 1 2 9 14 16 18 16 13 9 4 7 4 6 6 5 2 4 8 8 10 7 5 4 2 6 12 7 8 11 7 4 7 6 7 5 8 7 6 3 1 3 1
15 12 9 8 4 2 2 9 12 15 19 18 13 8 9 8 7 6 5 7 1 6 5 11 9 3 7 7 7 5 3 4 4 9 7 4 4 4 3 3 4 6 2 2 3 2 3
16 12 10 8 5 2 3 8 11 15 21 20 12 11 9 11 7 8 6 4 2 3 7 6 2 4 5 4 3 3 5 6 6 6 6 6 4 4 5 8 8 1 2 2 4 1 2
16 13 10 8 6 4 3 9 12 17 23 21 13 6 12 14 8 12 8 3 3 8 2 3 5 3 3 4 2 4 8 8 5 5 4 4 2 2 8 5 3 3 5 3 0 2 0
18 14 11 9 7 6 4 10 14 20 25 18 12 6 16 16 5 5 4 6 5 8 7 4 2 1 2 5 3 6 8 5 5 7 4 5 1 2 8 5 4 2 4 1 6 2 4
18 14 11 9 7 7 5 9 16 21 22 13 8 3 7 10 11 11 7 7 5 2 4 2 5 4 5 5 4 6 9 4 5 7 2 4 2 2 2 5 6 7 8 8 8 4 5
19 15 12 9 7 6 6 8 14 18 18 10 5 6 10 6 8 6 11 10 11 6 5 7 5 5 6 2 6 5 11 8 4 2 1 3 1 5 7 8 7 9 11 11 12 11 8
20 17 13 10 7 7 6 6 9 14 15 11 4 2 6 4 14 9 5 7 11 8 9 8 5 7 7 6 3 6 6 4 3 3 2 4 2 3 2 3 9 12 14 14 15 14 9
21 17 14 11 8 6 6 6 7 10 13 6 4 3 4 1 5 6 6 9 10 10 2 7 7 8 11 13 14 13 12 10 7 4 4 2 1 2 2 9 9 2 3 3 5 7 9
21 18 15 12 9 7 6 6 6 7 8 4 6 4 4 1 5 9 10 9 10 10 6 10 9 10 11 16 15 14 14 10 7 6 4 5 2 2 2 5 2 4 13 11 9 7 7
22 20 17 14 11 8 6 6 6 5 5 5 7 5 3 2 9 8 10 9 13 8 12 15 11 13 14 6 3 2 2 4 3 5 4 4 3 2 0 3 9 10 5 5 5 10 11
22 20 18 15 13 10 7 6 6 6 5 5 6 7 3 8 3 9 11 15 8 8 8 6 8 8 5 3 2 3 3 2 6 6 7 4 5 1 2 2 3 1 7 6 9 8 8
21 20 18 16 14 11 9 7 6 7 7 6 5 7 5 4 4 5 8 10 12 10 5 10 7 4 1 2 2 2 3 2 5 5 4 3 2 4 4 4 6 9 4 4 3 2 8
20 19 17 15 14 12 11 9 8 7 7 7 5 4 6 4 4 4 7 12 8 12 5 12 5 2 3 3 3 3 2 4 1 4 6 7 6 4 4 4 6 2 1 2 7 14 5
18 18 17 16 14 13 11 10 9 9 8 5 1 3 5 5 7 11 11 11 9 5 10 17 4 9 8 3 2 1 2 2 2 3 7 4 6 4 9 5 10 4 7 11 11 9 3

GFSGBSN_850_spd_009.txt.gz
Wind_Speed
17 15 14 14 14 15 16 17 16 15 14 14 13 12 11 10 9 10 10 9 10 12 11 8 10 7 4 5 7 6 6 2 5 7 9 10 16 15 7 7 4 8 8 13 8 9 13
16 14 14 13 13 14 15 15 13 13 12 11 11 10 9 9 9 9 10 11 13 12 8 8 8 5 5 6 0 2 2 8 4 8 12 19 13 14 11 8 6 11 15 13 8 6 4
15 13 13 13 12 12 13 12 10 9 8 8 6 7 7 9 10 11 12 14 14 9 7 8 8 7 8 13 8 3 3 6 6 7 13 2 6 11 5 5 6 18 6 7 7 13 6
14 13 12 12 11 11 10 8 6 5 5 3 4 5 8 9 12 15 16 14 9 7 6 8 8 8 7 5 6 2 5 2 6 7 8 4 4 10 8 10 4 3 5 5 6 13 9
15 12 12 11 10 9 7 5 3 3 2 1 2 5 9 12 15 17 15 11 8 5 6 8 6 6 8 3 7 1 6 6 2 3 5 1 3 3 3 4 3 2 5 6 6 15 5
15 12 11 9 9 7 5 3 1 2 3 3 5 8 12 16 17 16 13 9 6 6 7 8 6 3 13 3 4 6 4 4 2 4 5 4 4 2 5 4 3 5 4 5 8 3 4
15 14 10 8 8 7 4 3 0 2 3 5 7 10 14 14 16 14 12 8 6 1 11 9 12 11 5 6 9 7 5 1 4 7 4 12 6 3 3 3 4 5 5 10 5 5 2
16 13 10 8 8 6 5 4 2 3 5 7 9 10 11 13 12 12 13 5 7 1 6 12 7 4 2 1 9 7 2 4 5 6 8 5 5 3 5 5 6 5 7 6 4 3 3
17 13 11 8 8 5 6 5 4 5 6 7 8 10 12 10 8 11 7 6 8 2 3 4 5 5 1 5 7 4 4 7 8 5 7 8 1 4 3 9 9 10 6 5 4 7 5
17 14 11 9 7 6 6 7 7 7 7 7 8 10 10 7 6 5 7 3 7 6 4 5 4 4 1 6 3 1 3 4 3 5 9 6 1 4 8 8 7 5 6 5 6 4 2
18 15 12 9 7 6 7 9 9 9 9 9 9 10 10 10 2 2 6 4 2 7 4 5 4 6 4 1 10 2 1 7 4 4 7 3 8 9 9 4 5 2 0 3 3 4 3
18 16 12 10 7 6 8 10 11 11 10 10 9 10 10 3 2 2 6 2 4 5 1 2 5 5 4 5 6 4 1 2 4 10 8 4 11 5 5 4 2 5 4 5 3 2 2
20 16 13 10 8 6 7 12 14 13 12 11 10 10 6 3 2 1 2 1 5 4 5 4 4 6 6 3 5 6 4 6 4 3 3 5 5 3 6 4 2 6 6 3 3 4 3
20 16 13 10 8 5 7 13 16 15 14 13 11 8 5 6 2 5 2 4 1 6 3 6 5 7 6 4 3 3 7 5 9 6 2 5 3 6 8 5 2 5 4 4 2 1 4
19 16 13 10 8 5 6 12 16 17 16 15 12 8 7 5 3 4 2 2 4 3 7 6 5 5 4 1 1 6 7 4 6 7 5 4 3 3 5 3 3 5 5 2 5 1 3
19 16 13 10 7 4 5 11 16 17 18 17 13 9 6 8 4 3 4 4 2 5 4 6 7 6 7 7 5 4 4 5 2 7 6 5 4 3 3 1 6 6 2 5 4 2 2
20 16 13 10 7 5 5 11 15 17 20 19 14 6 10 7 6 3 2 5 4 8 12 2 3 2 3 7 5 4 4 5 8 4 10 5 4 3 2 5 4 4 3 4 2 4 3
20 16 13 11 7 5 5 11 14 18 23 22 13 0 13 13 4 4 3 3 4 3 4 4 5 6 4 5 6 6 4 5 9 9 3 3 4 3 3 2 2 1 4 5 4 3 1
21 17 13 10 8 5 5 11 14 20 27 24 7 4 13 16 3 3 7 2 4 6 3 1 5 6 5 4 5 9 5 7 10 5 1 3 2 3 4 4 5 2 4 5 6 3 3
21 17 13 10 8 6 6 10 16 24 29 20 3 2 4 10 10 5 4 3 3 7 3 6 5 3 5 4 5 4 4 3 6 4 3 3 3 5 5 2 1 2 4 2 6 3 4
22 17 14 11 9 7 6 9 16 24 27 13 5 4 11 4 5 5 5 8 6 2 1 4 1 4 5 3 5 5 5 4 2 1 2 3 3 4 4 5 4 3 4 5 5 6 6
21 18 14 11 9 8 7 9 14 20 21 13 5 3 14 10 18 3 4 6 9 8 6 4 4 5 8 5 1 5 8 5 4 5 3 4 1 2 2 6 8 4 7 7 7 7 6
22 19 15 12 9 8 8 8 11 16 17 10 4 1 4 3 5 3 3 2 1 9 3 5 8 12 14 8 22 19 21 18 11 4 2 3 4 3 2 4 5 4 4 3 1 1 1
22 19 16 13 10 8 8 8 9 12 12 5 5 2 4 3 2 4 6 5 7 7 6 14 21 10 12 20 20 18 22 19 15 11 7 4 3 3 2 3 2 4 4 1 5 5 6
23 20 17 14 11 9 8 8 8 9 10 7 8 5 4 1 3 3 5 4 18 27 16 20 11 20 19 7 5 4 5 6 5 6 5 5 4 3 3 1 6 6 2 3 4 4 7
23 20 18 15 12 10 9 8 8 8 8 7 10 7 5 8 4 5 4 22 6 4 5 7 15 12 5 5 4 4 4 6 4 3 12 6 6 4 2 4 6 6 4 7 4 3 5
23 20 18 16 13 11 9 8 8 8 7 7 8 8 5 4 6 4 3 7 11 9 5 6 4 3 3 3 2 3 3 2 5 7 3 3 3 5 3 2 7 8 5 6 4 6 4
22 20 18 16 14 12 10 9 8 7 7 8 8 7 6 4 4 6 7 10 16 16 5 11 4 1 3 3 3 3 3 4 2 6 6 7 6 4 3 2 7 11 6 7 5 6 9
22 20 17 15 13 11 10 9 8 8 7 7 8 7 6 4 4 6 7 8 15 13 16 21 6 7 7 4 1 3 1 0 2 3 4 2 7 6 9 7 9 16 12 14 11 4 9

GFSGBSN_850_spd_012.txt.gz
Wind_Speed
19 17 16 15 14 14 16 15 17 18 18 18 17 16 14 12 11 10 10 10 10 10 11 9 4 3 4 6 10 5 5 3 6 10 13 14 10 10 6 6 6 7 4 10 13 14 10
19 17 16 15 14 14 15 15 16 15 15 15 15 14 12 10 10 9 10 11 10 10 10 6 3 4 5 5 3 5 4 8 5 4 7 12 12 10 12 14 7 8 13 9 9 7 7
19 17 15 15 14 13 14 13 12 12 12 11 11 10 9 8 9 10 11 10 11 11 8 4 5 5 8 15 6 2 4 8 7 7 7 8 1 6 4 5 18 22 6 4 1 4 2
19 17 15 15 13 12 12 11 8 8 8 8 8 8 8 9 9 11 11 12 11 8 5 4 4 4 8 5 9 5 5 2 0 4 4 6 3 7 8 6 6 5 6 3 3 6 2
19 18 16 14 13 11 10 8 5 5 5 5 5 5 8 10 12 13 14 12 8 5 3 2 2 4 9 7 5 2 3 4 5 3 5 4 5 5 5 4 5 6 3 3 2 10 3
19 18 16 14 12 10 9 6 4 3 3 3 2 5 9 13 15 15 13 9 5 3 4 5 2 3 11 5 5 4 5 2 4 4 7 6 6 4 5 5 2 4 4 3 7 4 2
20 18 16 15 12 10 7 6 4 3 2 3 5 8 12 16 15 14 13 10 5 2 9 7 3 5 5 5 5 6 5 2 2 2 3 7 6 4 2 3 3 5 3 7 3 2 4
22 20 17 15 14 9 7 7 5 4 5 6 8 11 14 16 12 11 12 4 7 5 6 17 10 12 7 3 3 6 4 1 1 1 2 6 2 2 3 6 7 4 8 5 5 7 5
23 21 18 16 14 9 8 9 7 7 8 8 10 12 13 11 10 10 8 5 5 7 4 1 5 5 3 4 3 3 3 2 2 3 3 6 3 3 6 7 8 5 6 3 2 3 6
25 22 19 17 14 9 10 11 10 10 10 10 13 13 11 9 6 5 4 4 5 7 4 3 1 3 2 5 3 1 1 1 6 9 7 6 7 7 6 4 1 3 3 4 3 3 5
27 23 20 18 14 11 12 13 12 12 11 11 13 12 11 11 2 2 2 6 3 3 4 3 1 7 6 2 6 1 4 3 2 1 7 3 5 6 6 0 1 4 1 1 1 3 3
27 24 22 18 15 12 13 15 15 14 12 12 12 11 10 5 2 3 4 2 1 6 2 4 5 5 2 1 3 4 2 4 6 7 7 5 3 3 2 3 1 2 1 6 4 3 3
28 25 22 18 16 13 13 17 17 16 15 13 11 12 9 5 3 1 2 2 5 4 2 4 4 5 4 2 2 4 5 6 4 5 4 5 4 5 5 4 6 8 5 3 4 4 4
29 25 21 19 17 13 14 18 19 18 17 15 12 13 9 6 4 4 2 4 2 4 4 3 5 4 4 3 6 3 3 4 5 4 3 4 4 4 6 2 1 4 4 4 4 2 3
29 25 22 19 17 13 14 19 22 21 20 18 14 12 9 7 2 3 2 3 5 4 6 7 5 6 3 2 6 6 4 2 1 2 5 4 1 2 1 2 2 3 4 4 6 3 3
29 25 23 19 16 13 15 19 23 23 22 19 15 11 9 8 4 2 4 5 3 3 2 5 6 5 4 5 4 4 2 2 1 5 3 3 4 1 2 5 8 6 2 4 4 2 2
29 26 23 18 15 13 14 18 24 25 24 21 16 8 10 10 4 2 3 5 2 7 7 3 3 4 6 6 6 3 3 3 6 4 7 2 4 4 4 3 0 5 3 5 4 3 4
29 26 22 18 15 13 14 19 24 26 26 24 16 2 14 12 3 1 2 4 2 3 6 5 3 3 5 4 5 3 3 3 9 3 3 2 5 3 1 3 1 2 3 4 4 2 2
29 25 21 18 15 13 14 19 24 27 29 27 15 5 12 15 3 2 5 4 2 2 1 2 2 4 3 4 6 3 4 4 9 4 2 3 2 3 6 6 5 4 2 5 6 3 3
29 25 21 18 15 13 14 19 23 29 31 25 9 2 4 8 3 6 2 2 3 6 3 5 4 6 5 4 5 4 3 3 5 4 3 2 3 5 6 4 3 2 2 3 5 3 3
27 23 20 18 16 13 13 17 23 30 32 21 6 4 10 4 4 3 4 3 3 2 2 5 4 3 5 3 3 4 3 2 4 2 2 3 3 1 2 4 1 1 1 2 5 4 5
26 23 21 18 16 14 13 14 20 28 31 17 4 4 10 9 16 5 5 6 8 3 4 0 3 4 6 4 5 7 7 3 4 2 3 4 0 2 1 5 6 3 5 6 5 4 5
26 23 21 18 16 14 13 13 18 25 27 10 7 5 11 0 6 4 3 6 8 9 1 3 16 8 10 3 17 19 14 11 8 5 2 3 4 3 3 4 5 5 5 3 2 2 3
26 23 20 18 16 15 14 13 16 22 25 9 5 3 5 1 4 6 3 3 6 4 8 9 15 7 12 24 22 21 24 22 20 12 5 4 4 3 2 3 1 5 4 5 7 3 8
26 23 20 18 16 15 14 14 15 19 19 14 9 4 4 1 1 1 4 13 21 21 8 8 3 11 24 7 5 5 5 6 4 6 7 5 5 3 3 3 5 4 5 5 6 4 6
26 23 19 17 15 14 14 14 15 16 16 11 9 7 5 8 3 1 7 19 7 4 5 7 24 12 7 6 4 4 4 4 2 2 8 6 6 4 3 4 6 5 3 10 7 4 14
26 22 19 17 15 14 13 13 13 13 13 11 11 10 6 5 4 3 4 8 13 7 4 3 4 4 4 2 3 3 4 5 5 7 4 3 3 5 3 2 8 7 6 7 5 7 19
25 22 19 16 14 13 13 13 12 12 12 12 13 11 8 5 5 4 10 12 14 12 5 10 5 2 4 4 3 4 3 5 3 4 6 7 6 4 3 2 8 14 7 7 6 14 17
24 21 18 16 14 13 12 12 12 12 12 13 14 11 8 4 6 10 11 13 12 12 15 18 7 6 8 4 2 3 1 1 2 3 3 2 7 6 10 7 6 22 11 18 13 16 18

GFSGBSN_850_spd_015.txt.gz
Wind_Speed
22 22 21 19 19 18 17 17 17 18 19 20 20 19 17 15 14 12 12 12 12 11 9 6 5 5 6 5 8 6 4 3 7 9 13 15 16 12 4 5 4 3 3 2 12 14 14
22 21 20 19 18 17 17 16 16 17 18 19 18 17 15 13 12 11 11 11 10 9 6 6 5 6 6 4 1 8 7 5 6 11 11 16 14 14 6 9 8 10 3 8 8 12 10
23 23 20 19 18 17 16 15 14 15 16 16 15 14 13 11 11 9 9 8 8 7 7 6 6 6 8 11 6 5 6 5 4 2 5 3 6 16 5 3 9 12 4 4 2 3 2
26 23 21 19 18 17 16 14 12 12 13 14 13 11 10 9 9 7 7 7 7 7 5 4 5 5 8 5 8 2 2 3 1 2 1 3 2 8 5 13 6 4 5 3 4 3 2
28 24 21 20 18 16 15 13 11 10 10 13 10 9 8 8 8 7 8 8 7 5 4 4 4 3 8 5 5 2 2 1 5 3 2 2 3 4 6 5 5 6 3 2 3 5 3
30 25 22 20 18 16 14 12 10 9 9 10 8 6 6 7 9 11 11 8 6 4 5 4 2 3 7 3 4 6 3 2 1 3 5 5 4 4 4 5 4 3 2 2 5 3 4
31 26 23 21 19 16 13 12 11 9 8 7 5 5 6 11 13 13 10 7 3 2 9 6 3 5 4 2 6 7 5 1 4 7 4 5 6 4 2 2 5 2 3 3 2 2 7
32 28 25 23 20 17 14 13 12 8 7 6 6 8 12 14 14 12 11 3 5 4 4 13 11 13 11 8 2 4 2 3 4 2 2 6 4 2 7 5 7 6 6 2 3 8 10
33 30 27 24 20 18 15 15 13 10 9 9 10 12 14 13 13 12 10 5 4 6 0 2 7 7 2 5 3 4 3 2 3 2 4 6 2 5 7 7 8 4 2 2 5 6 5
34 31 28 25 21 19 17 17 14 12 12 11 13 14 13 12 10 6 3 2 3 7 4 4 1 3 2 5 3 3 4 2 4 6 5 6 6 5 6 5 3 3 2 3 4 6 4
35 33 30 26 23 21 19 18 16 15 14 13 14 14 13 12 6 5 2 4 2 2 4 3 2 3 5 2 3 1 4 1 4 4 6 2 2 6 6 1 2 3 1 2 2 4 4
37 34 31 28 24 22 21 20 18 17 16 15 16 15 14 7 6 4 2 1 0 6 2 1 3 2 3 2 1 3 4 8 7 6 7 3 1 3 1 1 1 1 4 6 4 3 3
39 36 32 29 25 23 22 22 21 20 18 17 16 15 13 8 6 2 2 1 5 4 1 4 3 3 2 2 5 4 4 6 4 5 3 5 4 5 3 2 3 5 5 2 3 3 4
40 37 33 29 26 25 23 23 23 22 20 18 16 16 13 9 5 2 1 5 1 4 4 2 4 3 4 3 4 4 3 3 5 4 3 4 3 4 5 2 2 3 4 4 5 3 3
41 37 34 29 27 25 23 24 25 23 22 19 19 17 13 8 4 3 3 3 5 6 5 6 4 4 2 3 5 5 3 1 2 3 4 4 1 3 1 2 3 1 4 3 6 3 3
42 38 34 30 27 24 23 25 26 26 25 22 20 17 13 10 4 4 4 5 4 4 2 4 5 4 5 4 4 4 2 3 2 5 2 5 4 1 4 3 5 5 4 3 4 3 2
42 38 34 30 27 24 23 26 27 28 27 24 20 10 13 11 6 3 3 6 4 3 3 3 5 4 5 6 4 2 1 3 3 4 6 3 3 4 2 3 1 4 2 6 5 3 4
42 37 33 30 26 24 23 26 29 30 30 26 20 3 15 14 4 1 3 4 4 2 6 4 4 2 5 4 4 2 4 1 5 1 2 1 5 3 1 5 3 1 3 4 4 3 1
41 36 32 29 26 23 22 26 30 32 32 29 16 5 14 17 4 2 4 4 0 1 3 2 2 2 2 5 6 2 3 0 3 3 3 1 2 3 6 6 5 1 3 5 5 3 4
40 35 31 28 25 22 21 26 31 34 34 27 13 2 4 8 4 7 3 3 1 4 3 3 3 5 5 5 6 4 2 1 2 4 4 3 3 5 6 4 3 3 3 3 4 3 3
39 34 30 28 23 21 22 27 32 36 37 24 9 5 9 4 3 4 5 2 3 2 1 2 3 3 4 4 3 3 2 2 3 2 3 4 3 2 3 4 2 0 4 6 6 5 5
37 32 30 25 22 20 22 27 32 37 37 21 8 5 6 7 20 6 4 6 6 2 4 1 6 2 2 6 6 8 6 2 3 3 3 4 1 1 1 5 6 3 5 6 5 4 7
35 32 28 25 22 19 20 25 31 37 36 19 7 4 7 2 5 6 5 6 8 7 6 2 11 5 5 2 7 11 5 8 7 5 3 3 4 3 3 4 4 6 8 8 5 4 6
34 30 26 24 21 19 19 23 28 35 38 22 9 6 6 2 4 6 6 4 6 5 7 5 9 7 14 29 26 22 26 22 19 12 4 5 4 2 2 3 2 6 3 5 5 3 3
33 29 26 24 21 19 19 23 27 33 34 17 11 6 6 2 3 3 8 6 15 15 5 4 1 9 26 7 5 5 5 6 5 6 6 3 5 3 4 3 5 4 5 6 7 7 6
31 28 25 23 21 19 19 23 27 27 28 16 13 7 3 14 3 10 6 10 5 4 4 4 13 30 5 5 4 4 4 4 2 1 6 5 6 4 3 4 6 6 3 7 6 5 16
29 26 24 22 19 19 19 22 25 27 27 22 13 8 4 7 5 13 4 9 11 7 4 5 6 3 3 3 3 3 3 3 4 6 4 2 3 5 2 4 8 7 6 7 5 7 21
28 25 23 20 19 18 19 20 22 23 22 18 14 11 7 6 6 6 11 14 12 10 5 10 5 1 4 4 3 4 3 5 2 4 6 7 6 4 3 1 8 12 5 8 6 7 23
27 24 21 19 18 17 18 18 19 20 18 16 16 12 9 6 7 10 10 11 15 14 15 18 6 6 8 4 1 3 2 2 2 3 2 3 7 5 10 6 4 19 9 21 10 9 23

GFSGBSN_850_spd_018.txt.gz
Wind_Speed
26 25 25 24 23 21 20 19 20 19 19 18 19 19 19 18 18 17 15 13 11 10 7 6 5 5 6 6 7 4 4 3 12 14 15 15 14 8 5 6 6 4 6 1 6 8 10
27 26 24 24 23 21 21 19 19 19 18 17 18 17 18 17 16 14 13 10 8 6 6 6 6 5 5 4 2 5 8 4 9 13 18 18 10 15 5 5 5 5 2 2 5 18 10
29 27 25 24 23 21 20 20 18 19 17 17 16 15 15 15 12 11 10 7 5 5 6 7 4 4 9 10 4 8 6 4 6 10 14 14 18 11 6 2 4 8 5 5 6 4 4
30 30 27 26 23 21 20 18 17 17 16 15 15 12 12 12 9 7 6 5 5 6 6 5 4 5 8 2 6 4 3 5 4 6 9 9 9 16 9 8 5 5 5 3 4 3 3
32 31 30 27 24 22 20 17 16 16 15 14 13 10 10 8 6 6 5 6 7 6 4 3 4 4 8 2 5 2 3 4 2 2 3 6 11 7 7 5 5 7 3 1 2 2 3
35 33 31 28 25 23 20 18 15 15 13 13 11 7 7 5 6 8 10 9 6 5 5 4 4 2 6 1 4 5 4 5 0 2 2 3 3 4 4 5 4 5 3 1 3 2 12
37 35 33 29 26 24 21 18 15 14 13 12 9 6 5 8 10 12 11 8 2 2 10 7 2 4 3 6 2 3 4 3 1 5 2 6 7 2 2 2 3 4 4 3 1 4 8
39 37 34 30 28 26 21 18 15 14 12 11 8 6 10 13 14 14 13 4 2 1 5 13 14 11 9 7 2 3 3 1 3 3 1 7 3 2 3 4 6 5 8 4 3 6 8
42 39 36 31 30 27 23 19 16 14 13 11 9 9 13 15 13 13 10 2 3 6 2 2 4 5 1 3 3 3 3 3 2 3 3 7 1 0 2 5 8 5 6 1 4 5 5
45 42 37 33 32 29 24 21 17 16 14 13 12 14 14 14 11 9 5 1 3 3 4 5 1 1 2 4 2 2 2 2 4 6 3 6 3 3 6 6 4 3 3 5 5 4 3
48 43 38 35 33 31 26 22 19 17 16 16 15 17 15 16 8 9 4 2 1 1 3 3 2 2 3 3 4 1 5 2 5 4 4 1 2 6 7 2 3 2 5 5 3 4 4
49 45 39 37 35 32 28 24 21 20 19 18 17 19 18 12 9 7 1 1 2 6 3 2 3 2 3 3 2 2 4 10 8 6 6 3 2 4 1 3 3 3 5 8 5 3 2
47 47 41 38 37 34 29 25 23 22 21 19 19 19 19 11 10 5 3 4 5 4 1 2 3 3 3 5 6 5 5 6 3 5 4 6 4 5 3 3 3 6 6 3 3 3 4
48 47 42 39 38 34 30 26 25 24 23 21 20 20 17 12 9 6 3 5 2 3 5 1 3 4 4 2 3 5 3 3 5 5 3 4 4 4 5 2 4 3 5 5 5 3 3
46 46 42 40 38 35 30 27 26 26 25 23 21 21 15 12 10 7 4 4 6 6 3 5 4 4 2 2 4 5 3 2 2 2 5 4 1 3 2 2 3 2 3 3 6 2 3
49 46 42 41 39 34 30 28 27 28 27 25 24 19 16 14 11 8 5 5 3 4 1 4 4 2 4 3 3 3 1 2 1 3 2 5 4 3 2 2 7 2 5 3 3 3 3
53 46 43 41 39 34 30 28 28 29 29 26 22 11 17 15 11 6 4 5 4 6 3 4 4 3 3 4 3 2 1 1 1 3 4 3 4 4 1 4 2 3 2 6 5 3 4
49 46 45 42 38 34 30 29 30 31 32 29 17 3 17 17 5 1 4 5 3 3 2 3 4 3 5 3 3 2 4 1 3 1 3 1 5 2 2 2 2 2 3 4 4 3 1
50 47 45 42 38 33 30 30 31 34 35 32 13 6 16 19 4 2 2 2 3 2 2 2 3 2 3 4 5 2 3 0 2 1 5 4 2 3 6 5 4 2 3 4 5 3 4
46 47 44 41 37 32 31 30 32 36 36 27 13 3 4 7 4 8 4 2 2 1 2 4 4 4 4 3 5 5 3 1 2 3 5 4 3 5 6 4 2 3 4 4 5 3 3
45 45 42 39 35 31 30 30 34 38 38 26 11 4 7 4 2 5 5 3 3 2 3 4 4 2 5 4 3 3 2 2 3 2 3 3 4 2 1 3 2 2 4 6 7 5 6
46 43 40 36 32 29 29 30 36 41 40 20 10 6 5 4 19 7 5 6 7 2 2 1 5 2 2 5 6 8 6 4 4 3 3 3 2 2 1 3 5 4 6 6 5 4 7
44 40 37 34 30 28 28 32 39 43 41 16 10 9 11 1 4 6 6 6 8 5 4 1 7 5 3 1 4 10 7 10 7 5 3 3 5 3 4 3 5 6 9 11 6 5 7
40 37 34 31 28 27 28 32 39 42 42 20 12 10 5 2 3 6 7 5 5 5 8 3 6 5 10 27 26 21 23 21 19 13 5 5 4 3 2 3 2 6 2 3 8 4 8
37 34 32 29 26 25 26 31 37 41 40 25 12 7 6 2 3 4 7 7 14 9 5 4 3 6 25 5 5 5 5 6 5 6 7 4 4 3 4 3 6 5 5 7 8 8 9
34 31 29 27 24 23 26 31 35 39 38 26 12 8 5 13 6 10 7 7 5 4 3 4 10 28 2 5 4 4 4 4 2 2 5 5 6 4 2 3 6 6 3 4 4 5 10
32 30 28 25 23 22 26 29 33 38 39 24 11 8 5 7 8 13 5 8 10 6 4 6 9 3 2 3 3 3 3 2 3 5 3 3 3 5 3 3 8 8 4 4 5 7 8
30 28 26 24 22 21 24 27 32 35 35 19 16 11 5 6 10 9 9 12 11 10 5 11 5 1 4 3 3 3 3 5 2 4 6 7 6 4 3 2 8 8 4 7 6 5 13
29 26 25 23 21 21 22 25 30 33 29 33 18 10 9 6 8 10 9 10 11 11 15 21 7 7 9 4 1 3 2 1 2 3 2 2 6 4 9 6 4 18 8 19 5 8 15

GFSGBSN_850_spd_021.txt.gz
Wind_Speed
27 27 26 24 23 21 21 20 19 18 19 19 19 20 20 20 19 18 15 12 11 7 6 6 5 6 7 6 6 3 8 8 13 15 15 16 14 9 4 5 6 5 3 6 10 6 10
29 27 27 25 23 22 21 19 19 18 18 18 18 19 18 18 17 14 12 10 7 4 5 5 4 5 6 4 2 2 8 1 10 15 17 17 8 13 3 3 6 4 6 4 3 11 14
31 29 28 26 24 22 21 19 18 17 18 18 17 17 17 16 14 10 9 6 5 5 5 4 3 6 10 9 2 9 7 4 7 10 15 18 16 8 4 4 4 7 5 4 5 2 5
33 31 29 28 25 23 21 20 18 17 17 16 15 15 15 14 11 7 6 5 6 5 5 4 4 7 7 3 6 8 4 3 2 8 10 9 10 15 4 2 4 3 3 4 2 3 4
34 33 31 29 27 25 22 21 18 17 16 14 13 14 14 12 8 5 5 6 6 6 5 4 4 4 6 3 6 2 2 3 5 1 8 6 9 5 3 4 2 6 3 3 4 8 4
34 35 33 31 28 26 23 22 19 17 16 13 12 12 12 10 6 6 7 8 7 5 5 3 5 2 3 2 4 3 2 3 2 8 9 6 3 2 2 2 6 4 4 1 4 4 12
40 37 35 34 30 28 24 23 20 18 15 13 11 10 10 9 9 10 12 10 4 2 10 6 2 1 1 5 5 3 2 2 3 4 2 2 3 4 3 2 3 5 4 5 3 1 7
35 36 37 36 32 29 26 24 21 19 15 12 11 10 10 10 11 13 14 5 2 3 4 13 15 13 9 5 2 4 2 0 2 2 1 4 3 2 5 6 6 4 7 4 5 3 5
45 39 38 38 34 30 28 26 23 20 16 13 11 11 11 12 14 14 12 4 2 3 1 3 9 8 2 7 4 3 4 5 5 3 4 4 1 2 5 4 10 3 5 4 4 6 6
52 44 38 40 36 32 29 28 25 21 18 14 13 12 14 14 13 12 9 4 2 1 4 3 3 2 5 5 2 2 4 2 4 5 4 4 2 4 3 4 2 4 1 7 11 3 3
44 49 40 43 38 34 31 29 26 23 20 16 15 15 17 19 7 14 4 5 5 4 3 3 3 4 5 4 6 2 3 4 5 4 3 1 2 3 5 1 1 3 3 5 3 4 3
43 43 44 44 40 35 33 31 29 25 22 19 18 19 21 21 12 10 7 5 6 5 3 2 2 3 4 3 2 1 3 6 6 5 5 3 1 3 2 2 4 9 5 6 3 2 1
43 40 49 41 42 37 35 33 31 27 23 22 21 22 24 19 11 11 7 7 4 4 2 2 3 3 3 2 4 3 3 4 3 4 3 4 3 2 1 3 2 3 4 1 0 0 4
42 41 41 41 44 38 36 35 32 29 25 24 23 23 24 21 13 10 9 3 3 3 5 1 3 3 4 3 2 3 3 3 5 4 3 3 0 3 5 2 3 3 2 4 4 3 1
38 39 38 42 46 40 38 36 33 30 27 25 24 24 24 20 15 11 6 3 6 6 3 6 3 4 2 2 4 3 3 2 1 2 4 3 1 2 3 1 0 3 2 2 6 1 1
39 39 37 42 46 41 39 37 34 31 29 27 26 22 24 19 17 14 4 5 4 4 2 3 4 2 3 2 3 3 1 1 2 2 1 5 3 1 1 1 7 1 7 2 2 3 3
39 40 37 40 45 41 40 38 35 31 31 28 24 12 19 20 18 9 4 5 5 7 6 4 4 3 3 4 3 2 3 1 1 1 2 3 3 2 1 1 4 3 2 5 4 1 3
37 36 39 37 45 42 41 39 35 32 32 32 19 3 23 22 5 2 4 5 3 3 4 2 4 4 5 3 3 3 6 1 2 1 4 1 4 3 1 1 1 1 3 4 3 4 1
37 35 42 38 44 43 42 39 36 34 35 37 14 6 20 23 4 1 2 3 3 0 1 3 3 3 2 4 4 2 3 2 2 3 5 5 1 3 2 2 1 2 3 4 5 2 5
33 40 36 41 44 44 42 40 37 35 38 35 16 3 5 8 6 8 5 4 3 2 1 4 5 4 4 3 4 4 3 1 1 3 4 3 3 4 6 3 1 4 4 5 3 3 4
30 35 41 41 45 45 42 41 38 38 40 34 10 4 7 4 2 5 4 6 5 3 2 2 4 2 5 4 2 3 2 2 2 5 3 2 4 2 1 1 2 2 4 9 8 4 6
29 27 35 44 44 43 41 40 38 41 43 28 9 6 5 4 18 6 3 6 7 3 1 1 6 3 2 5 6 8 6 4 4 2 2 2 4 2 4 0 2 3 6 8 8 4 11
27 34 37 40 42 40 39 38 39 43 46 18 9 11 13 2 4 5 6 6 7 8 3 4 8 5 4 2 3 8 7 11 7 5 3 2 5 3 3 3 2 5 10 12 6 6 9
35 29 37 40 39 37 38 36 39 45 47 22 16 15 7 2 3 6 8 4 7 6 7 4 7 5 7 26 27 22 24 21 17 12 4 4 4 2 1 2 2 4 2 3 12 8 14
32 35 37 38 35 35 34 34 39 45 44 21 18 14 6 3 5 4 7 5 14 10 5 4 3 9 27 6 4 4 4 5 5 7 6 3 4 3 3 3 6 5 4 6 7 6 11
33 35 35 34 32 31 31 34 39 46 44 19 17 13 6 13 7 12 7 9 5 4 3 4 9 29 5 4 3 4 3 3 1 1 3 5 5 3 3 3 5 5 1 4 4 4 2
34 33 31 28 28 28 29 34 41 45 44 20 14 10 6 5 6 14 6 9 9 6 4 7 10 5 1 2 3 3 3 1 3 5 3 2 2 3 2 3 7 6 1 4 2 5 3
31 28 25 24 24 26 29 34 39 43 43 25 15 9 7 4 13 9 10 14 11 11 5 11 6 2 3 3 3 3 3 4 2 3 5 5 6 3 3 1 6 6 5 4 4 5 7
28 26 24 22 21 23 28 33 36 41 41 28 17 5 6 5 8 11 10 12 10 13 15 24 8 7 9 4 1 3 2 1 2 3 1 3 4 3 8 5 4 12 10 10 12 10 9

GFSGBSN_850_spd_024.txt.gz
Wind_Speed
30 26 25 24 23 22 21 19 18 17 17 17 18 18 17 18 17 17 16 14 12 10 8 8 7 6 5 5 8 2 5 12 15 16 15 15 14 9 11 12 11 11 4 4 6 12 14
32 30 27 25 24 23 21 19 19 17 17 17 16 17 17 17 15 15 14 11 10 9 7 7 5 4 4 7 5 2 5 8 13 15 14 14 7 10 6 6 11 3 9 3 7 11 14
33 31 29 26 25 23 22 20 18 17 17 17 15 15 16 15 14 13 11 9 8 8 5 6 5 6 9 11 3 6 7 3 12 16 13 14 11 6 3 4 4 5 7 8 9 12 7
38 34 31 29 27 24 22 21 18 18 17 17 15 15 14 14 13 11 10 8 6 6 5 6 5 6 8 5 6 7 6 2 6 12 11 6 11 10 5 1 3 7 6 6 6 7 4
41 34 31 32 28 26 24 22 20 19 18 16 14 13 14 12 11 8 8 6 5 5 6 5 4 4 7 5 4 1 3 1 4 8 9 3 8 6 4 6 5 6 8 7 8 5 7
41 40 35 34 32 29 26 23 21 20 19 16 14 13 13 11 10 8 7 5 5 5 7 4 5 4 5 2 1 2 3 3 3 8 9 4 5 6 6 7 9 8 6 10 10 4 6
35 42 36 36 32 32 28 24 22 20 19 16 14 12 13 9 8 7 8 7 1 4 12 7 1 5 3 6 3 3 4 6 6 6 5 6 5 8 6 8 3 3 6 11 8 5 4
35 39 41 37 34 34 30 26 23 21 20 17 15 12 12 8 9 10 13 8 5 1 5 13 14 13 10 6 3 4 4 4 8 1 2 6 0 4 3 4 5 6 9 8 5 4 4
39 36 42 42 38 35 32 28 24 22 21 18 15 13 11 8 11 14 18 13 4 4 4 4 9 7 4 6 5 5 5 5 14 10 4 3 7 2 5 8 9 5 5 10 7 7 2
41 39 39 41 39 37 34 30 26 23 22 19 17 15 13 10 12 15 16 6 8 4 4 6 5 4 5 4 5 1 5 3 5 9 2 3 2 8 8 6 3 6 1 9 13 12 7
43 43 39 41 41 38 35 32 28 25 23 21 18 17 14 15 8 15 7 9 5 4 6 7 6 5 6 6 3 2 5 2 5 5 3 3 3 6 5 2 2 4 6 8 5 4 5
44 43 42 40 42 39 38 34 29 27 25 23 20 20 17 22 18 15 8 3 6 5 4 6 7 8 7 3 2 2 3 6 6 3 3 4 2 2 4 5 1 11 8 5 2 3 6
45 43 43 41 40 42 40 36 31 28 27 25 22 22 23 24 13 14 9 7 5 7 2 7 8 9 9 5 5 3 6 8 7 9 8 6 4 4 3 9 5 5 9 3 4 4 7
44 43 40 42 39 42 42 39 33 30 29 26 24 25 25 29 15 10 10 6 7 4 8 3 6 10 11 6 3 3 8 8 2 5 9 9 6 4 1 3 3 7 6 4 5 4 3
44 43 39 39 40 40 42 41 35 32 30 28 26 26 27 31 23 10 7 9 7 5 6 9 10 13 7 6 3 6 5 6 2 2 4 5 4 4 2 2 2 6 6 2 2 1 3
42 40 39 37 40 37 44 42 37 35 32 31 28 25 27 28 26 17 6 9 7 3 4 11 10 10 11 11 9 7 8 3 3 1 3 4 4 3 5 2 7 3 8 3 3 3 4
39 37 39 41 39 39 44 42 39 37 34 30 21 12 20 25 19 14 9 10 4 7 7 10 8 7 9 9 8 9 8 4 3 4 1 5 3 5 3 6 5 4 4 1 0 2 2
40 40 37 40 40 39 45 42 41 39 35 32 19 9 21 26 13 10 12 7 5 6 6 6 4 5 11 10 7 8 9 1 5 3 5 2 1 4 6 3 2 2 5 7 4 4 1
36 38 38 42 38 38 45 41 42 43 42 38 21 11 21 31 10 8 6 7 4 6 8 8 7 3 3 7 4 5 5 2 3 5 6 6 4 4 5 4 5 7 8 5 4 1 6
31 35 37 38 38 39 40 43 45 45 42 35 22 8 10 15 10 16 13 14 9 4 4 4 4 3 6 4 1 6 7 3 3 3 3 4 3 6 7 1 1 6 11 11 10 4 4
31 35 35 39 33 40 42 47 48 44 44 32 17 9 16 12 12 13 16 14 15 6 4 6 4 6 7 5 5 5 5 5 4 6 3 3 5 4 2 1 3 4 7 13 16 13 7
33 32 32 36 41 45 42 48 48 46 48 26 16 7 11 23 19 14 13 12 18 7 7 7 7 9 7 4 7 9 9 7 4 7 5 2 3 2 3 2 3 7 10 12 15 16 14
33 32 34 36 40 34 42 47 48 48 54 20 18 14 24 9 12 13 11 13 14 12 1 1 10 8 5 4 5 8 7 8 6 6 6 3 5 3 2 2 3 6 15 17 12 12 14
31 33 29 32 36 33 44 45 48 49 52 25 18 16 12 7 11 14 13 12 13 12 8 4 6 4 6 19 21 18 18 15 11 9 3 5 5 1 0 1 3 1 1 3 12 16 15
34 33 37 21 30 40 41 44 46 47 42 27 21 17 9 4 13 11 13 12 10 7 5 7 4 5 23 6 3 4 2 2 4 7 5 1 4 3 2 4 7 12 3 3 5 6 5
29 37 23 27 36 38 40 42 42 46 39 23 22 21 13 11 8 11 17 14 7 6 5 5 9 21 6 2 2 4 4 3 4 4 3 4 3 2 3 3 4 3 4 2 3 5 6
39 26 32 35 35 37 40 40 41 50 40 23 22 20 14 6 4 15 16 14 8 6 5 8 11 4 2 2 2 2 3 1 5 5 4 2 0 4 4 4 6 1 3 4 3 3 6
30 32 29 31 34 38 38 38 42 52 38 24 23 19 16 5 8 11 11 10 10 11 6 12 7 3 2 2 2 3 2 4 3 2 4 5 6 3 3 3 5 6 6 3 4 6 7
28 28 29 31 34 34 35 38 44 52 36 25 19 17 14 7 6 11 13 15 17 14 12 20 1 8 9 3 1 3 3 1 1 2 3 3 4 1 6 2 3 9 7 5 6 11 14

GFSGBSN_850_spd_027.txt.gz
Wind_Speed
31 30 28 24 22 21 19 19 19 18 17 17 17 16 15 17 18 18 18 18 17 14 12 10 8 7 6 7 11 5 3 6 16 15 11 12 13 14 12 12 15 12 4 5 3 10 8
36 32 31 27 25 23 20 19 19 18 17 18 18 16 15 16 16 17 16 16 15 12 10 7 7 6 5 11 2 1 6 8 12 14 11 12 8 9 8 9 13 11 13 4 8 10 3
38 38 33 29 29 25 22 20 19 17 17 18 17 16 15 15 16 16 15 14 12 9 8 6 5 7 9 16 1 3 2 5 11 13 11 11 9 7 4 6 10 4 6 5 8 11 6
29 40 39 32 30 28 24 22 20 19 17 18 17 15 15 15 15 15 13 12 9 8 7 5 4 5 9 5 7 9 6 5 11 14 11 7 10 11 10 4 7 10 11 9 9 17 16
30 30 40 35 31 32 27 24 22 19 18 18 17 15 15 14 14 14 10 10 7 7 4 4 3 3 7 6 6 3 6 3 6 8 9 6 6 10 10 12 9 11 12 8 6 11 10
32 31 34 38 36 34 30 26 23 21 20 19 17 15 14 13 13 12 6 6 4 6 4 6 6 6 9 9 5 3 5 8 4 8 8 6 9 7 10 8 8 8 15 15 14 10 13
38 33 31 39 39 36 31 28 25 22 20 19 17 15 14 13 12 9 4 2 3 4 10 14 2 8 4 2 5 6 6 8 8 7 7 8 8 11 11 9 5 10 3 7 13 4 9
43 38 35 31 41 37 32 31 28 23 21 20 17 15 14 13 11 9 10 8 7 3 8 20 17 13 13 4 7 9 7 11 10 8 15 7 11 9 5 5 12 8 5 11 8 9 6
41 38 34 36 36 37 35 34 30 25 22 20 19 16 13 13 12 13 16 14 2 7 7 12 14 12 8 8 12 14 11 8 16 11 6 7 6 5 8 7 12 7 9 7 10 11 13
42 41 39 35 35 39 38 31 29 27 24 21 20 17 14 12 9 9 13 9 7 8 5 12 10 9 9 8 7 4 9 6 7 10 11 10 12 12 10 7 5 6 0 7 5 12 14
45 43 41 37 38 39 41 38 30 28 25 22 22 19 16 12 5 10 3 3 3 2 6 16 13 9 8 13 4 11 8 9 8 7 10 9 7 11 11 3 5 10 4 7 8 14 8
48 46 43 39 38 37 41 41 34 30 26 24 24 21 17 20 21 15 5 5 4 6 7 8 10 12 12 12 7 7 11 9 5 8 10 13 1 5 7 2 2 5 5 5 8 10 8
48 47 46 43 38 39 39 40 37 30 29 25 25 23 23 22 9 8 8 6 6 11 6 11 13 15 15 9 9 10 15 14 12 10 10 8 6 3 4 7 4 8 8 7 6 5 9
44 46 45 45 39 41 37 42 40 31 30 26 26 24 25 26 14 7 9 8 11 15 11 4 11 14 13 10 9 10 12 16 17 15 4 12 9 11 6 6 4 8 10 6 6 7 9
48 46 43 44 42 38 40 39 41 33 32 28 26 25 28 31 27 12 14 12 15 7 11 9 11 12 14 11 5 12 15 15 16 15 12 11 6 7 0 2 5 5 8 6 5 1 6
49 45 41 45 42 39 41 38 41 37 33 31 26 23 28 28 28 11 10 17 20 3 5 11 14 14 14 14 11 12 12 6 6 5 6 1 2 3 4 4 5 8 3 4 6 4 8
49 46 41 45 42 38 38 40 40 40 36 32 23 12 19 24 25 16 12 19 17 10 10 12 16 11 12 12 14 16 13 8 6 8 6 3 7 7 5 10 10 7 9 7 5 3 4
45 44 44 43 40 39 37 40 38 42 36 35 28 12 24 32 16 18 16 22 15 12 10 9 6 9 12 11 12 12 13 8 10 8 9 4 4 6 12 5 5 9 8 10 6 6 3
42 37 43 40 40 38 39 40 38 43 45 38 30 20 22 30 14 14 19 22 15 13 12 12 11 8 9 10 10 11 10 6 4 7 4 6 7 8 6 7 8 8 10 8 5 2 9
35 35 39 40 39 40 39 40 38 42 47 42 26 11 12 23 33 22 24 22 18 15 10 16 11 9 10 8 6 9 8 4 5 4 0 0 12 10 9 5 2 7 12 11 11 7 9
28 37 39 40 41 41 40 44 35 43 49 41 30 16 20 17 22 21 23 18 22 14 11 15 11 15 13 9 9 7 10 6 5 5 6 4 9 13 14 5 6 8 8 12 17 16 12
25 31 34 37 40 40 39 43 36 43 51 36 19 22 29 28 35 20 21 23 24 19 15 16 13 16 13 9 10 9 12 9 7 9 7 5 6 3 6 7 7 10 12 14 14 16 17
28 31 32 36 39 36 38 45 39 43 56 31 25 23 31 27 24 18 18 23 23 16 3 9 17 11 11 4 6 8 8 4 4 7 10 5 4 3 4 3 5 6 17 18 17 16 12
30 31 32 33 35 33 42 49 38 53 62 36 22 17 20 16 18 20 22 23 21 17 11 5 10 10 7 16 17 15 13 10 7 5 3 5 7 1 0 1 1 2 2 4 6 12 14
32 29 31 33 33 34 38 46 44 58 62 36 19 18 12 4 20 24 23 21 19 11 12 14 5 5 22 11 4 4 2 2 2 2 3 4 4 2 2 6 9 12 5 1 2 5 8
30 28 32 32 33 32 47 39 49 58 63 37 16 13 21 11 14 29 21 24 13 11 7 5 10 16 8 3 2 5 5 6 5 6 2 3 1 4 3 3 4 4 4 2 1 5 7
27 29 31 35 34 42 36 32 47 52 61 40 6 16 17 14 23 21 18 16 20 15 7 8 10 6 3 3 2 3 4 2 5 5 4 2 1 6 5 3 6 3 3 2 4 3 9
35 34 28 34 39 37 33 46 49 51 55 35 4 19 16 9 12 10 16 21 19 20 8 14 8 3 4 3 3 3 1 4 2 2 6 6 7 3 3 3 5 7 7 2 5 8 10
28 34 36 30 29 38 45 45 48 54 48 24 6 21 16 10 8 9 14 14 14 16 16 20 5 14 10 5 1 2 2 1 1 3 3 4 5 2 6 2 4 6 5 5 6 8 10

GFSGBSN_850_spd_030.txt.gz
Wind_Speed
36 33 27 27 27 23 21 19 18 17 18 17 16 17 17 18 19 19 19 20 20 17 14 13 9 7 7 6 11 7 9 2 8 14 11 11 11 12 15 17 11 13 15 10 9 7 13
26 35 35 31 30 27 24 22 20 19 18 18 16 16 17 17 18 18 19 20 19 15 12 11 7 6 4 9 1 3 6 3 7 11 9 10 11 12 14 15 13 13 14 6 4 6 6
24 24 33 37 34 29 26 24 22 21 19 18 16 17 16 16 17 17 18 18 17 13 10 9 6 6 9 17 2 0 2 4 8 10 8 8 11 5 6 10 10 6 5 7 2 4 5
27 27 25 33 36 33 28 26 23 21 20 19 18 17 16 15 16 16 17 16 14 10 9 6 4 7 10 4 9 9 9 7 9 11 12 10 7 11 13 15 5 8 11 4 7 4 11
32 30 28 27 35 37 32 28 26 23 20 19 18 17 15 15 15 14 15 12 11 7 7 4 3 5 10 5 10 8 9 7 6 10 10 8 7 12 13 10 9 9 4 7 8 17 11
36 35 33 31 29 35 35 29 29 25 22 19 18 17 15 15 14 13 11 9 8 4 5 5 5 8 12 10 11 6 5 5 6 7 7 8 8 6 9 9 7 6 13 12 7 8 13
40 39 37 34 31 30 37 33 28 27 23 20 19 17 15 14 13 10 8 6 7 3 11 12 1 11 7 6 6 8 9 8 5 8 8 11 8 8 15 8 10 13 9 17 16 11 8
41 40 40 37 32 30 35 36 34 31 24 21 19 17 16 14 12 10 9 6 7 7 10 20 20 17 16 9 9 15 12 12 5 3 13 8 8 5 16 11 12 15 12 4 7 6 4
40 40 40 39 37 31 31 36 34 29 25 22 20 18 16 13 12 13 14 18 5 15 7 13 22 19 16 16 16 17 14 15 17 8 14 4 10 10 19 10 14 15 2 5 8 9 10
46 41 39 39 37 34 32 37 37 31 28 23 21 18 16 10 8 8 12 8 7 5 5 10 16 15 18 13 17 18 20 17 10 13 11 12 13 12 8 12 10 8 13 8 9 11 7
44 48 40 39 38 37 33 35 37 34 31 25 23 20 17 12 7 9 5 3 5 4 4 13 17 16 18 18 11 13 8 10 8 12 11 8 11 14 17 5 9 3 13 13 10 7 4
45 42 45 43 39 36 34 35 39 38 31 26 24 21 18 20 21 15 4 6 5 5 6 7 11 11 14 17 15 10 17 15 7 6 6 8 10 14 4 13 9 9 10 10 8 5 2
41 44 46 43 42 39 34 37 38 39 34 25 26 23 24 19 9 6 9 4 6 8 5 10 13 15 16 14 13 10 16 16 10 8 8 9 14 9 13 10 5 8 8 3 7 5 4
50 43 45 43 44 41 37 38 37 40 36 26 27 24 25 26 16 4 9 6 11 12 22 3 13 16 17 15 14 13 13 16 17 18 8 2 11 9 10 9 3 13 8 2 5 5 8
52 46 47 43 43 42 40 36 38 39 37 28 28 25 28 29 22 11 15 12 11 11 20 8 13 14 16 16 8 12 15 17 18 18 5 3 5 16 3 1 3 6 2 2 4 6 2
48 45 48 48 37 44 40 38 38 38 38 30 31 17 32 30 27 13 9 18 16 24 13 13 14 13 16 15 12 12 13 14 17 9 21 6 8 21 6 4 4 5 7 4 1 2 4
45 43 45 46 38 42 40 40 39 37 39 29 25 12 18 29 26 17 12 18 18 28 12 5 15 14 15 12 14 12 9 8 5 7 4 10 21 8 6 7 8 5 6 6 7 5 1
43 44 42 44 50 39 41 41 39 39 39 32 26 8 21 36 16 17 14 23 30 23 12 11 14 14 13 11 12 12 14 13 13 9 7 6 3 5 10 0 5 8 9 11 3 6 2
42 41 40 42 45 45 43 42 40 43 45 40 22 19 31 36 13 13 19 25 27 24 15 15 12 13 9 11 7 10 7 6 8 4 1 1 2 5 11 6 7 8 10 10 6 3 4
41 38 40 42 41 48 45 43 42 45 46 38 20 9 15 33 27 21 24 21 24 31 16 16 14 13 8 11 10 8 6 3 3 2 5 5 6 9 7 9 6 12 11 11 10 3 4
38 37 39 41 42 48 46 44 42 46 45 39 19 13 18 12 20 20 21 20 24 23 23 21 15 16 11 8 12 7 8 7 3 2 2 2 9 11 14 16 1 10 8 8 12 11 10
39 37 37 39 44 47 46 44 43 45 43 44 22 15 27 11 28 23 21 27 26 23 17 17 13 13 14 10 10 10 12 8 8 7 8 5 5 4 8 9 10 12 13 12 14 13 12
32 34 35 37 43 44 44 46 43 42 45 25 35 26 14 19 22 20 21 22 25 19 22 22 19 14 16 6 13 13 14 13 7 9 9 7 2 2 2 6 7 6 10 16 15 14 11
26 25 32 33 38 41 43 43 43 42 52 27 38 18 11 13 19 24 26 24 24 23 12 15 17 14 11 19 20 17 15 10 8 4 7 4 5 2 0 2 1 8 4 5 5 7 9
26 23 28 31 35 37 40 43 43 40 51 44 40 18 6 8 18 26 27 24 27 27 15 14 6 14 26 15 4 4 2 3 2 2 3 2 4 2 2 4 7 11 1 2 2 3 11
28 26 27 29 31 35 36 36 39 36 51 48 40 21 12 8 18 41 24 26 16 7 4 6 13 17 12 3 2 4 4 6 6 6 1 2 3 3 3 2 4 0 5 3 2 2 9
28 27 25 26 29 33 34 39 37 43 54 49 43 28 11 7 24 37 22 19 19 17 6 12 7 6 3 3 2 2 4 3 5 6 4 2 0 4 3 2 6 2 5 1 2 3 4
27 25 25 28 32 32 33 34 37 50 50 45 52 35 14 8 24 35 28 24 17 24 7 14 7 4 4 2 3 2 2 4 2 7 7 6 6 3 2 2 6 6 6 1 4 5 9
28 26 27 31 30 32 33 36 42 50 42 49 38 17 17 25 8 17 16 17 14 12 18 21 7 14 9 3 1 3 2 2 2 2 7 4 5 3 7 4 5 6 5 3 4 4 6

GFSGBSN_850_spd_036.txt.gz
Wind_Speed
23 23 25 29 30 28 25 22 22 20 17 16 15 15 15 15 14 15 16 17 18 18 17 15 14 12 11 7 6 2 7 3 2 5 8 7 4 3 3 4 5 5 10 4 20 14 15
25 24 23 22 24 30 31 26 25 23 21 19 16 15 15 14 14 14 15 16 17 16 15 14 12 10 10 4 3 2 9 2 3 7 7 6 5 16 13 5 1 13 19 18 19 15 26
29 28 26 24 21 22 29 31 29 25 23 21 17 15 15 14 14 14 15 15 17 15 13 12 11 10 13 10 2 3 2 5 3 6 4 5 10 10 7 6 15 17 5 10 1 10 6
33 31 30 28 25 23 22 26 30 28 27 23 18 16 15 14 14 14 15 15 16 13 11 11 9 11 10 2 10 12 7 6 5 2 6 10 13 12 2 8 10 6 5 3 7 9 7
37 36 34 31 29 27 26 23 24 27 26 23 21 17 16 15 14 14 14 15 15 12 11 9 7 8 10 8 12 12 11 11 11 7 6 12 11 6 6 3 5 6 1 2 6 8 6
39 39 38 35 32 30 29 27 23 23 25 25 22 19 16 15 15 14 14 14 14 13 12 10 10 9 8 4 9 11 11 7 3 6 5 3 2 3 4 4 2 3 3 2 3 4 2
37 38 41 39 36 34 32 30 26 23 24 25 23 20 17 16 14 14 13 10 6 3 7 10 6 10 11 5 6 12 10 12 7 6 3 0 5 2 5 5 6 3 3 9 7 5 6
41 39 37 41 40 36 34 32 29 26 24 24 23 20 17 17 14 13 12 7 5 4 11 19 21 26 24 17 8 7 17 8 6 4 0 4 2 3 6 1 2 8 7 8 8 7 9
46 42 38 39 40 39 36 34 31 28 25 24 22 20 17 17 13 12 11 11 11 14 6 15 19 23 20 12 9 13 16 12 8 4 4 5 6 1 3 2 5 4 6 4 5 6 3
49 48 43 39 35 35 37 34 32 29 27 25 24 21 19 14 11 10 1 10 2 6 2 7 7 9 14 11 6 19 11 12 2 8 5 4 3 3 3 2 1 7 13 8 7 2 1
49 49 48 43 38 35 34 35 31 30 28 27 25 24 23 16 8 9 2 6 6 4 3 4 6 5 14 13 2 9 15 13 8 7 5 6 6 3 3 5 4 10 4 4 6 2 4
47 53 49 47 42 39 35 29 28 28 29 27 26 22 22 21 21 10 7 1 10 3 7 4 9 7 7 12 7 3 3 16 17 5 2 1 3 4 6 5 4 3 4 5 4 3 1
55 46 50 49 46 42 38 35 29 27 28 28 27 26 25 22 19 15 12 4 3 5 5 5 6 7 8 6 5 6 4 4 6 3 3 1 4 2 2 5 4 4 5 4 4 4 5
68 54 52 51 48 44 39 38 34 30 28 27 30 28 27 26 17 14 9 2 9 8 8 4 7 10 9 7 8 6 4 6 3 5 3 5 3 1 2 4 3 4 5 5 4 3 4
56 69 54 53 48 44 41 34 31 33 29 27 30 32 27 32 22 16 8 11 7 7 5 4 4 8 6 7 7 7 9 8 9 8 7 4 2 4 4 4 4 6 3 4 7 3 3
52 61 55 53 47 44 40 39 32 34 30 29 30 29 32 30 25 19 7 17 7 11 6 4 6 7 8 8 7 8 7 6 6 10 10 7 3 4 6 2 4 7 3 3 3 3 2
52 58 49 53 50 44 41 39 36 37 34 32 28 14 20 33 24 13 13 16 14 33 11 4 3 5 8 8 9 7 10 7 9 2 10 6 4 4 1 5 7 1 1 2 4 5 4
52 61 54 51 49 46 37 43 37 36 37 36 28 8 24 38 12 9 15 16 10 24 10 5 4 7 9 10 8 9 10 9 11 17 10 7 5 4 11 3 2 4 7 6 5 4 1
54 54 60 49 50 45 40 42 38 39 44 43 20 14 29 40 10 14 7 20 25 9 6 5 5 6 3 7 5 6 4 2 1 6 9 8 2 2 5 7 4 5 6 4 5 4 5
52 53 55 52 49 46 41 39 46 41 47 48 16 8 14 29 28 20 19 15 21 18 22 16 11 7 8 4 5 7 5 2 4 6 6 12 5 7 7 6 4 3 3 2 5 4 5
52 51 54 53 48 43 43 42 50 45 50 52 19 11 21 15 20 12 20 15 21 15 15 12 10 16 12 5 6 3 5 4 4 6 2 4 5 4 4 3 2 3 4 5 5 5 6
51 49 54 51 44 37 41 44 50 50 47 54 18 8 25 7 24 20 17 22 27 19 11 17 14 13 8 7 8 7 8 3 5 2 3 2 3 2 2 3 2 2 4 4 5 3 6
49 49 54 50 43 41 45 42 51 53 51 31 35 25 20 20 17 17 23 22 26 18 16 33 12 14 8 10 11 12 18 22 12 9 6 6 6 3 4 4 3 5 7 7 5 3 5
45 47 49 49 44 42 42 43 50 54 58 30 38 24 10 9 13 19 22 19 28 19 19 14 31 13 15 17 23 22 23 17 16 6 7 6 5 2 3 3 2 7 4 4 9 6 6
43 44 44 41 40 39 38 44 53 50 56 35 34 23 6 8 15 12 24 23 25 26 20 27 23 14 28 9 4 6 5 6 4 7 5 4 5 3 4 3 5 7 4 6 6 0 1
40 40 39 38 39 40 41 46 46 47 51 46 36 31 7 2 10 25 17 27 18 10 14 15 17 16 17 4 3 6 5 6 5 4 6 7 5 4 3 4 7 7 3 7 6 1 6
36 35 34 36 38 42 44 44 47 45 55 55 42 27 9 5 11 34 16 21 17 15 4 4 10 8 3 3 3 3 3 7 6 9 5 3 3 5 2 3 7 8 7 5 6 6 12
31 32 30 32 38 41 42 46 45 45 56 52 47 32 18 5 11 7 23 20 31 31 7 7 6 2 3 3 4 4 3 6 4 7 7 7 6 3 3 3 7 9 5 7 7 12 17
24 22 25 28 38 42 41 43 45 44 57 47 33 37 21 6 8 13 20 13 30 43 25 20 8 8 8 3 1 3 2 2 4 2 3 1 7 6 8 6 4 1 7 23 23 22 16

GFSGBSN_850_spd_039.txt.gz
Wind_Speed
25 24 24 26 29 31 30 27 25 23 22 20 17 15 15 15 14 14 14 15 16 17 18 18 16 14 13 8 5 1 6 3 0 6 6 6 2 0 1 5 3 5 3 5 17 15 13
28 27 26 25 24 24 29 32 28 25 24 23 20 17 16 16 15 15 15 15 15 17 18 17 14 12 12 4 1 3 5 1 1 4 6 3 2 8 5 6 3 3 9 4 15 16 7
33 31 29 28 25 24 23 26 30 28 26 23 22 20 17 16 15 16 16 15 16 16 16 16 14 12 16 14 6 5 2 2 1 2 3 1 6 7 10 6 8 7 5 2 4 4 2
37 36 34 31 29 27 25 23 24 28 29 26 24 22 18 17 16 17 16 16 16 17 15 14 13 12 10 3 14 9 7 5 3 6 6 4 7 7 3 8 8 5 4 3 1 4 3
38 37 37 37 33 31 29 26 25 22 26 25 23 22 19 17 17 17 17 16 17 16 15 13 12 8 10 8 14 9 11 8 2 8 9 9 4 2 4 2 4 6 2 2 5 4 3
37 38 38 37 37 35 32 29 28 24 22 23 23 19 19 17 17 17 16 16 18 15 13 13 14 8 8 2 7 13 15 12 2 3 7 2 2 3 4 3 2 1 3 3 3 5 5
42 40 38 36 38 36 36 34 31 27 24 22 23 20 19 18 17 16 15 11 8 5 6 10 2 7 12 6 7 11 9 13 5 4 0 3 4 3 7 5 3 1 2 3 5 4 3
44 44 40 38 35 35 35 33 32 30 26 23 23 21 20 18 17 15 13 7 3 3 11 18 21 26 26 26 9 7 10 10 6 5 1 4 3 7 4 3 5 3 3 4 5 3 7
42 43 45 42 39 34 33 30 29 30 29 26 23 21 18 17 14 14 11 4 8 12 6 12 17 18 24 15 10 9 18 10 5 6 5 5 4 3 2 0 1 2 1 3 5 6 1
56 49 45 46 43 40 34 31 28 28 29 27 25 22 17 16 13 15 4 3 5 7 2 6 6 8 14 9 6 17 15 11 2 9 5 5 3 4 4 1 3 2 3 3 4 1 3
47 56 51 47 46 45 38 32 29 25 24 27 25 24 19 19 8 6 8 5 8 4 3 3 5 3 18 17 5 12 17 12 8 5 5 5 6 5 4 5 5 6 1 4 3 4 2
49 46 55 46 46 44 41 36 32 30 26 24 25 24 22 24 23 12 8 2 8 4 6 4 8 7 6 11 4 5 18 12 6 5 2 5 2 2 4 1 5 3 1 5 4 3 1
48 44 50 59 49 48 42 39 35 29 25 23 25 26 24 24 25 16 13 6 3 4 4 4 6 6 7 6 5 4 5 5 6 4 3 2 2 2 1 1 4 4 5 3 4 4 4
53 48 49 58 55 47 46 42 38 32 28 24 25 27 30 27 23 14 9 3 10 7 7 5 3 4 8 6 6 6 5 5 4 3 4 5 5 6 3 4 4 1 6 4 3 3 4
57 51 47 49 62 41 49 44 42 34 32 25 23 27 30 30 25 15 9 9 7 6 4 4 3 5 4 4 5 6 7 7 9 9 7 4 4 2 3 2 4 2 3 3 6 3 3
61 55 49 51 56 56 45 46 38 36 30 29 27 26 32 32 28 20 5 20 9 7 5 5 8 6 8 7 7 7 8 5 6 8 9 7 1 1 3 3 5 3 5 1 2 3 3
69 58 53 50 54 60 45 47 38 35 32 32 28 13 19 33 29 14 10 12 15 23 5 3 4 2 8 7 9 6 8 5 6 6 6 5 5 4 3 5 7 2 2 2 4 4 4
70 66 56 50 51 56 58 53 42 40 36 35 29 7 23 40 15 9 12 6 9 19 14 4 3 6 5 9 8 9 10 9 16 15 10 8 6 5 10 3 4 3 5 5 4 4 1
66 70 57 52 49 50 60 55 44 39 45 42 24 14 29 44 13 16 8 15 14 9 7 6 5 2 4 5 6 7 8 5 9 8 10 8 2 2 7 4 2 4 5 4 4 3 6
64 71 59 52 48 53 54 53 43 45 50 41 16 8 15 35 34 20 20 13 21 19 17 0 3 3 2 4 5 8 7 4 7 8 15 10 4 7 8 8 4 3 4 4 6 3 4
63 72 62 53 48 57 58 49 39 47 54 43 19 11 16 14 24 17 19 15 22 15 17 13 5 8 3 4 4 3 3 3 2 10 3 6 5 4 3 3 4 5 5 7 6 6 6
64 71 63 54 55 60 45 45 43 46 51 37 19 8 18 3 27 24 17 20 24 22 8 10 17 6 14 10 8 6 6 4 6 3 3 1 3 3 3 3 4 4 7 6 6 3 6
70 68 59 53 56 57 58 45 50 48 54 24 38 24 20 17 20 19 27 23 23 19 25 27 14 12 6 13 18 26 15 12 13 10 6 5 6 4 4 2 3 6 7 8 6 5 6
69 66 55 53 58 61 49 46 50 53 57 34 40 22 7 9 14 22 20 21 23 24 20 22 37 10 7 6 5 10 14 18 12 6 6 6 5 3 3 3 2 7 3 6 5 2 5
65 57 53 53 58 56 47 49 53 51 50 60 21 21 5 4 16 14 22 23 19 28 21 25 21 34 27 11 2 3 5 5 4 7 4 3 6 3 5 4 4 5 4 6 6 2 3
57 49 48 52 54 51 50 45 49 50 50 52 42 20 13 2 9 18 22 27 17 17 11 21 24 31 14 3 3 6 5 6 4 3 3 5 6 5 3 5 7 7 4 5 5 2 5
45 44 45 50 52 51 44 44 46 44 41 49 44 22 13 4 5 23 13 17 26 16 9 7 26 8 16 3 3 4 3 6 7 10 6 3 3 5 2 3 7 7 5 9 6 7 17
37 38 41 44 44 44 43 43 42 39 41 42 45 32 15 6 7 9 22 17 22 29 12 7 10 7 2 4 4 4 3 6 4 5 7 7 7 4 3 3 6 5 6 8 6 11 24
34 35 37 39 41 41 41 41 41 39 44 40 26 37 21 10 8 9 14 24 25 32 30 19 6 10 13 4 2 2 2 2 4 3 2 2 7 6 8 6 3 4 6 7 24 29 21

GFSGBSN_850_spd_042.txt.gz
Wind_Speed
28 26 25 24 25 26 27 29 30 27 26 23 23 22 20 19 18 17 17 16 16 18 19 19 18 17 13 6 7 3 5 2 1 6 8 7 3 2 1 3 1 3 4 6 9 10 3
32 31 30 28 26 25 24 24 28 31 29 26 24 23 22 20 19 18 18 17 17 18 19 19 17 16 11 4 4 4 2 2 3 6 8 5 1 4 3 3 2 5 6 3 7 5 1
31 34 33 31 29 28 26 25 23 25 30 28 26 23 22 21 20 19 19 18 17 18 18 19 16 16 16 15 7 8 4 1 2 4 5 2 4 4 5 4 5 4 2 3 2 2 1
33 32 33 32 33 31 28 27 25 23 22 27 28 25 22 22 20 20 20 18 18 19 19 18 16 15 11 6 14 13 7 3 3 5 5 4 7 7 3 6 4 4 4 2 1 3 3
35 35 34 31 30 34 31 29 27 25 23 20 26 26 22 23 19 20 19 20 19 19 20 18 14 9 10 5 14 12 10 6 4 6 6 7 4 3 2 3 4 5 2 2 2 5 4
33 34 36 34 31 29 31 30 30 27 25 22 21 24 21 19 18 19 18 20 18 18 17 13 13 8 10 3 6 9 10 9 8 5 5 3 2 2 4 4 3 1 2 3 2 3 3
44 36 34 37 35 32 29 30 28 29 26 23 22 22 20 18 17 20 17 13 10 7 7 9 3 7 9 3 7 9 10 11 7 3 2 2 4 3 6 5 2 2 3 2 3 3 5
38 43 41 35 38 37 31 29 26 25 26 24 23 21 21 18 17 18 16 10 6 7 11 16 21 28 28 24 7 8 10 9 6 4 1 5 4 6 4 7 3 5 3 2 4 1 6
43 37 45 44 37 38 37 32 28 24 24 25 24 21 19 19 13 19 16 9 9 10 6 12 19 19 25 17 10 11 14 12 4 5 5 6 5 2 3 0 4 3 0 0 3 5 2
48 45 39 49 45 39 38 36 32 28 25 25 25 21 17 14 14 19 14 7 11 8 2 6 6 8 15 11 5 15 17 11 1 10 7 4 4 3 1 3 5 2 4 2 2 3 1
51 50 44 39 52 47 39 38 36 30 26 23 24 22 18 17 9 6 6 2 6 6 3 3 4 2 14 19 10 14 16 13 8 6 6 6 3 4 5 7 6 6 3 2 1 1 2
53 51 50 44 41 56 48 41 38 33 27 24 23 24 21 21 25 12 10 5 6 1 7 4 7 6 6 7 4 7 15 9 3 5 1 4 2 4 7 1 4 3 3 6 4 3 2
56 54 52 49 41 40 54 42 42 37 31 27 22 23 26 26 23 21 16 5 3 5 3 4 5 6 5 6 5 4 6 6 6 4 4 1 3 2 3 2 3 4 5 2 3 3 5
58 56 55 50 44 42 45 52 41 38 34 28 25 24 29 29 25 16 10 4 10 6 7 4 1 4 8 5 6 5 6 6 2 5 3 6 5 5 4 5 7 4 6 5 4 3 3
57 58 56 56 49 44 44 53 41 41 36 30 24 26 30 34 25 21 12 10 7 5 5 3 1 4 4 5 6 5 8 7 9 8 7 4 4 1 1 1 2 5 3 4 6 3 2
56 57 57 57 52 47 43 46 54 44 37 32 30 27 34 32 27 24 5 16 8 5 2 3 6 5 9 7 6 8 9 5 6 11 7 7 2 1 2 1 2 1 6 3 2 3 3
55 55 57 56 60 50 44 44 53 47 36 34 29 14 15 32 31 16 12 10 19 17 0 3 3 3 6 7 9 6 10 4 8 5 4 5 4 4 1 5 7 2 1 5 4 4 4
54 58 58 57 64 52 46 44 53 46 39 36 28 7 21 39 15 16 17 7 17 24 5 3 2 4 4 5 6 8 10 9 16 15 8 6 5 5 8 2 3 4 7 6 5 3 1
56 55 57 59 66 56 49 47 52 50 46 45 20 13 28 47 13 15 10 17 8 7 8 5 5 3 2 0 3 7 7 6 13 8 9 7 1 0 8 5 3 4 5 3 5 4 6
55 55 53 59 65 63 51 48 53 51 49 51 13 8 16 34 39 18 22 16 21 13 7 5 2 2 0 3 4 3 6 3 10 11 6 11 4 7 8 8 4 4 5 5 6 4 5
54 52 53 58 67 67 53 50 50 56 52 53 18 9 14 14 23 17 19 15 19 16 19 14 2 6 3 5 3 4 2 3 2 7 6 6 8 6 4 4 5 4 5 7 7 6 6
50 49 52 57 70 66 58 54 56 59 55 48 14 7 15 9 24 22 16 22 25 21 10 14 7 8 8 4 6 3 2 2 5 5 7 3 4 3 3 3 3 3 6 6 4 2 5
47 46 44 50 69 65 57 52 59 65 61 34 24 23 19 15 19 17 25 20 20 17 22 11 20 12 4 15 20 21 17 13 6 2 9 8 7 3 4 3 4 6 8 8 6 5 8
47 47 47 55 66 63 53 54 63 68 67 38 26 27 10 6 13 22 21 18 23 23 10 26 18 5 8 19 7 1 2 4 7 3 3 7 7 3 3 3 2 6 1 3 8 6 6
42 41 46 64 65 56 53 62 67 64 65 41 30 25 11 3 11 9 19 22 19 20 18 14 33 22 17 11 4 1 3 2 1 5 4 1 6 3 5 4 5 3 4 7 7 9 6
40 44 43 65 60 52 56 64 58 58 61 58 29 29 7 1 11 18 15 20 18 15 8 15 29 21 6 3 3 5 5 5 5 3 4 5 6 5 3 5 7 8 4 8 4 6 7
34 40 59 62 53 55 60 55 52 53 49 50 50 28 9 2 3 27 17 16 21 17 2 7 17 14 15 2 2 3 5 3 6 10 6 4 3 5 2 3 7 7 4 10 5 8 17
44 57 54 48 50 56 59 51 48 52 48 44 38 42 22 4 12 3 19 21 22 32 9 8 8 13 2 7 4 4 3 6 2 5 8 7 7 3 3 3 7 11 6 9 7 3 27
42 41 45 48 50 49 52 43 46 48 46 37 25 35 32 15 7 11 10 15 22 22 27 21 8 8 15 4 1 3 2 1 5 4 1 3 6 6 9 7 4 15 6 16 7 11 26

GFSGBSN_850_spd_045.txt.gz
Wind_Speed
26 27 27 26 24 24 24 25 25 27 27 25 23 22 21 21 20 19 20 20 19 19 20 19 19 18 15 7 6 5 3 2 4 8 10 8 4 2 2 3 2 5 5 9 7 3 4
28 28 28 28 28 26 23 23 23 22 23 27 26 24 21 21 21 20 19 19 20 20 20 19 19 18 13 6 5 5 2 5 6 9 11 6 2 2 2 3 4 2 5 7 2 7 5
28 29 28 27 27 29 28 24 23 22 21 22 25 26 24 21 21 20 20 18 19 20 21 20 18 18 16 18 6 9 7 7 7 7 8 3 2 2 4 2 6 5 4 0 3 2 2
28 26 29 29 27 26 27 29 25 24 22 21 20 23 24 22 21 22 20 18 19 21 21 21 18 17 10 9 12 14 10 4 6 9 7 3 3 5 3 3 5 2 1 2 2 3 1
32 33 28 28 31 27 26 26 27 26 24 22 19 18 21 21 22 22 18 17 20 21 21 20 17 9 9 6 12 15 13 7 6 6 6 5 5 1 1 2 2 4 2 2 2 4 2
32 32 35 33 28 30 28 26 26 27 26 24 21 19 17 17 18 20 16 15 20 20 19 13 13 7 10 3 5 10 12 11 7 4 6 3 2 1 1 2 4 3 2 1 3 3 1
32 31 32 35 34 28 30 28 27 26 26 26 23 20 18 15 16 16 14 11 10 7 8 9 5 5 4 2 6 11 13 12 9 4 4 1 2 5 6 5 3 2 3 2 1 2 4
39 38 37 34 33 36 28 31 29 25 24 24 23 23 20 15 14 15 11 8 7 7 12 16 20 30 26 18 5 11 14 11 7 4 4 1 4 4 2 2 3 2 2 2 2 1 1
44 44 42 40 34 30 40 30 32 28 24 21 21 21 20 15 12 14 12 11 12 8 6 12 19 21 26 19 14 14 19 12 5 6 6 5 2 5 3 3 4 3 4 2 2 2 1
44 43 41 41 40 36 33 39 30 31 27 22 18 19 15 12 11 11 13 8 10 8 3 7 6 8 15 13 7 19 21 14 2 10 8 4 2 4 4 4 6 4 5 3 1 0 2
48 46 44 43 42 40 35 41 38 32 30 25 21 18 15 15 7 4 3 2 4 9 3 2 4 3 12 16 14 17 23 10 9 7 6 4 4 3 5 6 5 5 3 2 2 2 1
51 51 50 48 44 42 38 34 41 36 31 29 23 19 17 21 23 12 11 6 6 1 8 3 7 6 6 7 5 11 10 8 7 5 1 3 2 4 5 2 5 3 3 3 3 2 2
49 49 50 50 48 44 40 39 36 45 35 31 26 22 23 25 21 20 14 5 3 7 2 3 4 5 6 5 4 4 8 7 7 5 5 0 3 2 3 3 1 3 2 2 1 2 3
51 50 49 49 49 47 43 39 37 36 42 34 29 26 26 30 16 22 16 3 11 5 6 2 2 4 7 6 4 3 9 9 2 4 4 6 3 8 5 5 6 6 5 4 3 3 2
49 49 48 49 50 49 46 41 38 34 43 38 29 31 29 34 29 20 16 9 8 6 4 2 1 4 4 4 6 3 6 12 10 8 5 5 4 1 2 2 3 4 4 2 6 2 1
50 48 49 48 49 48 48 44 40 34 42 38 31 30 37 33 32 28 8 18 10 6 2 1 5 5 9 7 5 11 7 5 6 9 6 6 2 2 2 3 3 2 6 3 1 3 3
52 51 49 47 48 49 48 47 43 36 39 38 36 15 16 34 32 22 14 12 19 16 4 2 2 1 4 6 7 7 10 2 8 8 4 5 3 2 2 5 8 3 2 4 3 1 2
52 53 51 50 48 49 50 50 47 39 39 41 31 9 16 37 20 15 18 12 10 20 6 4 1 4 3 4 5 6 13 11 18 17 10 6 5 5 7 0 2 3 6 6 3 4 1
54 55 54 52 51 50 52 54 52 46 44 45 17 18 17 44 14 14 14 15 14 11 12 5 6 5 1 1 3 6 6 6 17 9 10 8 2 2 1 1 1 3 5 4 5 3 7
57 54 54 52 53 54 54 59 57 51 47 48 15 8 15 38 37 20 19 23 21 19 5 11 3 2 1 2 2 2 5 3 15 8 10 13 4 6 9 7 5 4 5 7 5 4 5
59 56 56 53 52 54 56 63 62 54 52 51 19 8 17 12 22 22 20 17 24 13 17 14 6 10 3 5 3 3 1 1 2 7 5 5 7 6 5 5 5 6 6 11 10 7 8
60 60 59 55 54 52 54 67 64 58 55 44 15 9 16 13 37 24 17 19 28 25 16 15 11 10 14 6 7 2 4 2 3 1 5 2 4 5 3 4 7 6 5 8 8 4 9
52 54 57 54 55 53 57 70 64 59 64 34 29 27 29 18 19 19 23 19 18 18 16 14 15 5 6 14 18 17 14 12 6 5 3 3 6 4 4 0 2 4 8 10 6 5 6
40 49 50 61 55 53 57 72 64 61 68 37 32 27 15 8 14 21 18 18 20 26 9 19 22 14 8 17 14 9 4 3 8 7 8 5 5 1 3 2 5 3 1 2 10 6 9
19 41 52 48 49 51 67 72 64 61 69 35 38 28 14 7 11 16 18 22 16 21 20 15 12 11 15 4 3 3 2 3 2 2 6 4 5 3 5 4 3 2 4 7 7 13 10
23 37 40 44 43 40 72 70 63 60 67 40 34 29 16 6 7 17 21 25 13 12 7 14 7 19 10 2 3 4 5 3 4 3 3 5 3 4 3 5 8 5 4 7 4 12 8
27 32 37 34 35 61 70 64 61 58 57 48 25 34 16 2 13 20 12 18 25 11 5 7 16 7 7 2 2 3 4 6 3 6 6 3 2 7 3 3 6 6 5 11 6 8 9
27 32 30 32 51 64 66 58 56 58 57 51 25 33 24 3 3 5 13 20 23 30 9 9 8 7 2 5 3 3 4 6 4 2 5 7 7 4 4 2 7 11 8 10 8 5 11
26 28 29 48 58 60 52 50 51 56 61 48 28 22 26 10 4 5 6 13 20 39 27 28 11 10 14 4 4 3 2 0 4 8 1 4 6 5 9 7 2 26 9 23 9 7 11

GFSGBSN_850_spd_048.txt.gz
Wind_Speed
23 23 24 24 25 25 25 23 22 22 22 22 24 26 23 22 19 20 19 17 16 17 17 18 18 19 17 7 9 9 5 4 8 11 10 9 6 4 5 3 4 11 11 7 6 2 0
21 20 25 25 24 24 24 25 24 23 21 20 20 23 25 24 21 21 20 18 17 17 18 17 17 18 14 11 8 7 6 7 9 12 10 7 1 1 3 5 7 6 11 9 3 5 3
27 25 22 22 26 24 23 25 25 24 24 22 21 20 21 24 23 21 22 19 18 17 18 19 18 17 16 17 9 9 10 9 11 10 8 6 2 3 2 5 5 10 10 7 8 9 2
26 26 28 26 21 25 25 24 24 25 24 23 22 21 19 20 21 21 21 21 19 18 19 19 18 15 11 13 10 14 13 9 9 12 8 6 3 4 4 5 7 9 6 9 7 7 4
26 26 27 26 31 24 24 26 24 24 25 23 22 21 20 18 18 20 20 19 17 17 19 20 14 8 9 9 14 17 18 7 9 11 9 6 3 5 5 9 7 8 11 5 3 5 2
32 29 28 27 28 32 29 23 26 24 25 24 23 21 20 18 17 18 16 15 14 17 20 15 12 5 14 6 7 13 19 13 5 10 6 7 6 8 7 8 9 9 9 8 5 5 6
30 32 31 30 29 24 29 31 22 25 24 24 22 21 20 19 15 16 12 9 7 6 9 11 3 5 3 4 9 12 16 15 11 10 10 10 9 9 3 4 8 7 7 8 6 4 5
35 36 34 34 33 32 28 24 31 22 24 23 20 19 18 17 14 13 9 5 4 6 12 18 22 25 21 7 4 13 17 17 14 13 8 6 11 2 2 4 7 7 8 7 2 3 6
38 38 36 38 39 37 34 28 24 29 23 25 21 17 16 13 12 15 11 9 9 8 8 14 21 19 16 21 15 18 21 22 17 14 14 12 3 5 7 8 9 9 10 4 2 2 4
44 44 41 37 37 36 35 33 29 27 28 25 24 19 15 8 10 10 9 8 7 4 6 7 9 11 16 14 12 22 24 21 9 18 12 10 6 8 8 9 8 10 10 5 4 7 7
40 41 42 43 41 36 34 33 29 27 34 24 23 22 16 16 7 8 6 7 6 5 7 7 7 8 11 23 14 21 26 18 19 11 9 9 9 11 11 10 8 4 4 7 6 9 7
43 42 42 41 42 42 38 36 33 30 27 37 24 24 20 18 19 13 14 11 10 5 9 5 8 11 11 17 10 18 20 15 14 12 11 8 2 5 3 3 10 4 6 6 5 6 9
45 45 43 42 42 41 41 39 37 31 28 36 28 24 22 18 19 15 17 9 6 10 2 7 6 9 14 14 13 18 23 21 15 16 16 14 13 6 6 7 7 10 9 7 7 7 8
45 47 46 45 43 42 42 40 38 33 30 28 36 25 26 25 20 16 16 6 14 9 14 1 4 9 10 18 14 17 22 21 22 19 12 14 13 15 12 13 8 14 12 6 6 5 5
45 44 45 46 45 44 43 41 40 36 32 29 30 31 29 30 28 19 17 13 14 15 12 7 7 9 9 14 9 14 20 24 23 20 14 14 14 5 7 6 10 8 9 3 3 0 3
45 44 44 45 45 45 44 44 40 39 33 30 30 32 33 32 31 28 10 25 18 16 10 11 11 9 13 16 10 17 17 18 23 23 18 7 10 5 7 7 3 6 9 6 5 5 7
49 48 46 46 47 46 45 44 43 39 35 31 29 18 27 34 30 19 9 29 28 20 16 9 11 10 7 12 17 16 15 6 23 21 20 10 9 6 7 11 13 6 7 3 2 3 4
50 46 50 50 50 49 46 46 45 41 39 37 31 10 21 41 17 8 13 30 22 22 20 8 5 6 5 9 15 15 22 16 21 24 20 18 9 9 13 3 4 7 10 12 7 6 4
47 47 46 46 50 52 47 47 46 46 47 45 24 18 22 45 14 12 28 26 29 19 24 12 11 7 4 4 7 16 12 13 18 19 17 14 10 10 10 6 5 9 11 12 7 3 12
50 48 47 46 47 54 50 47 48 50 52 48 21 7 14 35 41 27 29 24 30 30 23 15 11 7 8 6 4 4 9 4 15 21 12 23 13 16 13 14 12 11 13 15 15 8 11
57 56 54 53 55 58 49 52 50 58 57 52 25 9 17 14 22 29 28 28 28 30 30 23 15 17 13 5 3 3 2 5 6 5 7 11 16 17 18 16 15 16 14 15 16 17 13
58 58 56 58 55 54 55 53 55 62 63 47 15 11 29 18 38 32 28 26 32 29 24 24 20 21 12 13 4 5 7 7 1 4 7 6 10 11 13 13 14 16 17 18 19 17 14
40 54 54 54 58 56 54 56 57 68 70 33 35 29 30 19 27 20 23 29 32 27 31 31 21 11 21 21 11 5 6 10 9 4 9 5 8 8 13 9 8 6 16 16 16 14 15
29 34 41 51 58 57 57 57 62 72 73 41 44 31 18 14 17 23 32 31 29 28 26 18 20 17 8 10 7 6 15 12 12 10 11 5 9 5 5 4 7 8 3 17 18 15 15
30 29 34 48 55 55 57 57 63 71 70 44 40 28 19 11 19 24 28 28 28 29 26 25 13 20 11 4 5 6 5 7 8 7 12 14 8 4 4 9 9 4 6 8 12 16 14
20 19 27 41 49 53 53 53 53 73 68 40 43 38 16 14 16 28 23 21 19 20 19 25 18 12 14 5 5 7 8 8 7 4 2 8 9 8 4 7 7 9 11 12 4 15 10
9 12 37 45 48 50 52 54 51 75 73 43 38 39 23 15 15 22 19 20 40 20 16 21 12 13 14 6 4 5 6 6 12 6 5 5 4 12 11 7 6 3 11 14 9 14 5
15 17 32 37 43 47 48 47 66 66 64 47 37 31 29 12 4 7 19 24 32 29 16 22 12 6 8 8 7 5 4 6 8 12 6 8 9 5 8 7 11 14 12 11 14 5 9
22 23 29 35 42 44 46 56 71 67 52 43 31 30 22 9 5 4 10 14 19 39 30 29 18 20 12 7 6 5 3 1 8 10 7 8 6 3 9 6 4 29 20 25 10 10 10

GFSGBSN_850_spd_051.txt.gz
Wind_Speed
22 17 17 20 21 21 22 23 23 22 20 21 22 22 24 26 26 23 21 21 20 20 21 19 19 18 15 8 13 11 10 7 8 9 10 11 11 12 11 6 5 11 10 7 9 2 4
22 25 23 18 18 20 22 21 22 24 23 21 21 20 21 21 24 25 25 23 21 18 20 21 19 17 11 16 8 12 12 9 9 12 11 12 9 6 11 9 9 8 11 12 4 5 5
21 21 22 27 23 19 20 22 22 22 24 23 22 21 21 20 20 23 26 26 24 21 20 21 20 17 14 23 6 8 12 11 11 13 12 11 7 10 4 11 10 12 15 11 12 12 11
23 22 22 22 22 26 23 20 22 22 22 23 22 22 21 20 19 18 21 23 22 23 22 20 19 12 11 10 9 12 13 11 11 13 11 10 8 10 11 10 13 15 17 12 13 10 9
25 26 26 25 22 21 26 27 21 21 22 22 23 22 21 21 18 17 18 18 18 20 20 20 15 8 11 14 15 17 18 13 12 13 11 8 9 14 10 12 14 14 16 5 9 11 7
27 26 26 28 26 23 21 24 29 21 21 22 22 22 20 21 18 17 17 15 15 18 16 13 11 9 19 11 10 16 21 15 14 14 13 13 13 12 13 13 12 9 13 12 11 8 9
29 29 29 28 28 28 26 23 19 31 21 21 21 21 19 19 18 15 15 11 9 6 15 14 3 15 2 8 8 15 23 19 15 17 16 20 13 14 16 7 12 12 16 11 5 5 7
32 32 31 32 32 31 29 29 24 19 28 21 21 20 19 16 15 13 12 7 7 6 12 20 26 26 18 4 9 18 23 23 21 18 19 13 15 17 4 6 10 11 15 14 5 5 6
37 36 37 35 32 31 33 33 30 27 21 30 20 20 19 14 14 16 14 11 8 6 10 20 30 33 28 25 18 22 29 29 21 20 19 16 10 4 5 11 12 12 15 3 10 13 10
39 39 37 36 36 35 31 30 30 32 25 23 26 19 17 14 12 13 15 12 12 8 7 13 10 14 31 27 19 29 32 31 18 21 19 17 15 8 10 13 12 15 14 6 10 11 7
39 38 37 36 35 33 34 33 29 28 27 22 28 22 17 15 8 9 1 10 8 3 7 2 15 2 16 27 11 29 31 34 25 20 14 17 14 11 14 15 10 8 3 8 12 13 14
38 38 38 38 38 36 35 32 32 28 27 21 22 27 20 19 21 14 9 5 11 7 13 7 9 11 13 28 27 14 37 35 28 20 17 19 13 13 15 12 8 7 5 9 12 12 11
39 39 39 39 41 40 37 34 32 33 28 25 25 26 24 19 21 13 7 8 7 14 5 13 9 14 17 17 23 18 29 29 21 22 21 20 15 15 5 10 10 13 12 9 9 9 11
40 40 40 41 42 42 40 37 34 31 32 28 24 24 28 25 22 19 12 6 16 20 29 3 9 13 15 17 23 21 25 26 28 23 16 18 19 21 14 16 11 17 16 7 8 8 6
44 44 43 42 41 41 42 39 37 33 30 28 23 23 33 27 24 21 9 11 25 25 20 27 7 12 15 18 16 22 27 27 29 26 19 19 21 18 19 16 16 14 17 16 13 8 7
45 44 44 45 43 43 42 42 39 36 33 31 28 25 34 31 24 24 7 6 28 26 26 14 24 15 17 17 17 23 24 26 28 29 22 9 14 13 13 13 15 12 12 12 9 6 10
44 46 44 45 44 43 43 42 41 38 35 33 33 16 23 29 24 18 9 19 21 35 28 24 21 21 13 15 21 19 17 13 27 25 21 16 13 11 12 14 17 12 10 11 7 10 5
42 43 40 41 44 47 44 41 41 40 39 39 33 10 18 38 16 7 16 35 43 25 38 21 18 18 23 13 18 21 24 20 15 18 21 22 11 12 17 18 20 16 19 18 10 12 8
39 42 40 41 48 41 42 44 42 45 46 47 21 15 23 45 12 15 24 37 38 30 24 29 20 20 12 13 11 18 16 16 15 21 19 20 12 12 15 11 10 14 16 15 17 11 12
40 40 40 40 41 40 43 45 49 50 51 53 19 9 13 38 40 25 32 37 37 38 27 28 19 24 20 15 12 5 19 7 19 15 27 19 17 20 15 17 15 18 17 17 15 10 12
44 44 43 44 43 43 43 46 51 54 57 60 24 10 17 14 22 33 31 22 33 34 36 30 18 26 24 20 16 15 12 5 6 12 5 9 22 20 23 20 17 23 23 22 22 19 17
45 47 46 45 45 46 48 47 51 59 59 57 14 11 31 20 35 30 26 34 36 34 28 29 24 19 20 21 17 13 11 8 7 8 14 16 16 21 21 20 18 19 18 18 20 21 20
45 47 47 46 48 49 52 52 54 66 65 33 25 35 32 23 27 23 24 35 40 32 38 40 28 20 17 21 4 14 7 9 5 6 9 9 13 16 17 18 20 17 17 19 20 19 17
43 42 44 47 47 52 58 59 58 59 67 38 42 39 18 14 16 25 32 33 36 34 31 35 38 23 27 12 5 6 10 5 5 7 10 8 14 12 8 3 16 10 15 20 22 20 17
38 44 44 44 42 46 59 61 61 65 68 47 43 33 22 12 20 24 29 27 34 40 25 26 38 40 23 7 7 7 3 5 6 12 16 12 10 7 8 12 13 18 10 13 15 16 17
30 35 39 39 37 43 60 58 65 64 65 53 41 45 31 12 16 35 19 28 20 19 19 26 36 20 13 4 7 16 8 7 8 8 21 14 14 10 7 14 19 12 14 14 13 13 14
16 12 18 29 34 42 48 61 59 62 61 60 48 48 25 15 25 15 15 22 34 24 15 22 26 17 20 6 8 11 13 12 12 12 8 8 7 12 13 10 8 10 14 15 13 14 9
17 23 27 25 27 38 52 61 59 62 59 55 48 48 29 10 9 15 14 25 31 32 16 27 19 11 9 9 9 7 7 9 13 16 14 9 7 6 9 11 14 4 11 14 16 23 7
5 5 15 26 30 42 50 54 55 54 59 53 34 47 37 6 2 15 6 11 18 30 34 29 16 23 13 10 7 7 5 2 11 10 15 13 9 8 8 5 10 18 19 22 23 16 11

GFSGBSN_850_spd_054.txt.gz
Wind_Speed
26 24 25 22 18 18 20 20 21 21 22 21 20 20 20 20 19 21 23 25 25 24 23 25 23 21 20 9 19 14 13 12 9 10 12 12 13 13 17 15 12 9 14 17 13 11 6
19 22 23 23 27 23 18 19 20 20 21 22 22 21 20 20 19 19 20 22 24 24 23 22 23 22 14 17 7 10 9 15 11 12 13 14 14 13 15 18 13 16 15 15 18 12 7
19 19 19 19 20 23 28 24 20 21 21 21 21 21 22 21 19 19 19 20 20 21 21 21 20 19 18 31 10 8 11 14 12 14 14 13 14 12 15 14 18 18 15 17 14 7 11
20 21 23 22 20 18 20 22 27 21 21 21 20 21 22 22 21 19 19 19 17 19 19 19 19 15 17 17 11 19 17 15 14 14 16 11 12 13 17 18 20 16 17 16 9 10 13
22 23 23 23 24 23 19 19 22 25 23 20 21 21 22 22 21 19 20 18 16 17 19 16 15 8 16 13 21 20 19 19 15 14 15 11 10 14 17 15 14 15 14 16 7 10 10
25 25 25 24 25 24 25 22 20 19 22 24 20 20 20 22 21 19 19 17 14 19 15 10 12 8 22 20 13 17 22 20 17 14 16 15 11 12 14 12 14 16 14 16 15 11 9
28 28 28 27 27 26 27 25 24 22 20 20 23 19 19 19 21 17 16 13 10 5 9 13 10 13 20 6 6 14 22 22 16 19 16 21 12 15 19 18 22 14 14 15 4 8 5
30 30 30 30 30 28 26 28 26 25 22 19 19 21 18 17 19 17 13 6 3 9 14 22 31 31 31 19 11 17 23 23 21 19 19 16 18 19 20 12 9 11 14 15 8 7 3
32 33 33 33 33 32 31 28 25 28 28 23 21 21 20 16 16 19 16 16 8 13 11 27 33 36 38 28 25 19 29 32 21 20 19 20 20 20 20 8 11 13 15 13 12 4 16
35 35 33 32 32 31 30 29 29 26 24 28 24 17 19 14 15 9 13 11 10 8 7 12 18 14 36 30 30 31 29 32 18 23 22 21 22 9 10 11 14 13 14 13 7 9 7
37 37 36 34 33 31 30 28 27 27 25 22 21 20 19 16 10 5 2 11 5 4 7 6 21 7 15 35 12 32 34 33 25 23 15 21 19 19 15 15 14 12 3 10 12 12 12
39 38 36 34 32 31 30 30 28 25 24 24 19 19 16 18 18 15 4 9 9 5 12 6 9 10 11 30 38 11 35 35 34 24 23 22 22 18 17 15 15 12 6 9 9 10 10
39 38 37 35 33 33 32 31 29 27 24 24 20 20 19 18 18 9 15 13 7 12 7 11 12 10 16 16 25 26 21 27 24 22 21 21 22 19 15 19 16 9 9 8 6 8 9
40 39 38 37 36 34 33 33 31 29 25 23 24 20 22 20 18 12 10 5 15 22 31 6 14 16 18 16 19 24 25 23 24 24 17 18 18 24 13 14 13 14 15 8 6 4 7
40 40 40 39 39 38 37 35 34 30 27 24 23 26 25 22 24 16 9 14 18 26 20 25 21 12 16 17 13 20 24 21 23 27 22 19 22 19 18 15 19 11 16 17 14 3 3
40 40 39 40 40 39 38 37 34 32 30 25 27 27 30 22 27 20 8 14 27 29 29 26 22 18 14 18 17 19 23 18 23 27 21 18 13 23 23 22 17 16 12 12 10 6 5
42 41 42 42 41 41 40 38 38 35 33 28 30 16 18 26 26 17 13 20 32 45 35 29 26 24 23 19 19 20 21 21 24 22 23 21 16 12 14 15 17 13 13 11 12 10 7
45 45 43 43 42 40 40 41 40 39 36 35 33 8 19 37 17 9 18 41 26 29 40 30 26 27 24 23 12 19 23 20 21 26 27 22 6 13 16 16 16 18 16 16 9 9 5
46 44 45 46 41 40 42 41 42 42 42 43 19 14 23 46 12 16 24 34 34 27 32 28 28 26 22 19 12 15 21 19 13 11 20 19 16 11 16 15 16 18 16 17 16 10 14
45 43 40 42 37 37 45 41 42 43 46 49 17 7 15 38 39 25 26 35 33 40 29 35 26 25 21 17 20 12 14 16 13 9 15 23 15 16 12 14 11 18 18 19 18 8 5
41 40 41 40 38 38 36 38 40 51 52 54 22 8 16 15 21 30 27 18 29 26 37 38 28 29 22 13 14 18 26 9 2 11 3 5 20 21 18 18 17 20 21 20 21 14 13
40 40 39 39 40 40 40 39 40 42 46 58 15 8 29 16 37 29 26 30 33 22 27 35 30 30 24 18 14 16 20 8 14 9 11 10 14 18 20 19 21 19 18 20 21 20 18
40 41 41 42 42 43 44 44 45 46 49 47 30 34 25 23 23 22 24 33 34 28 27 36 32 24 23 18 11 2 9 20 21 13 10 12 12 14 17 18 18 19 18 17 14 16 14
39 40 41 43 45 46 48 49 49 52 55 50 35 34 9 8 17 22 31 34 34 29 28 29 37 27 32 18 9 3 10 19 28 3 5 5 10 10 6 5 24 9 14 14 15 16 15
40 42 44 46 49 47 49 51 52 52 57 57 28 35 20 3 18 24 30 27 29 31 23 25 34 43 38 17 7 4 3 4 12 8 4 3 4 5 6 12 12 15 12 11 12 16 18
34 37 39 39 41 44 48 49 51 54 57 54 36 44 33 13 14 36 16 29 19 18 20 29 41 32 28 12 8 9 5 6 6 4 7 7 6 7 3 10 12 4 12 17 11 12 12
28 29 32 33 37 45 52 51 52 55 54 58 39 51 34 7 17 22 11 17 27 22 16 18 29 21 24 14 14 11 10 16 7 6 5 3 7 11 10 7 6 6 13 21 16 7 11
20 23 28 32 30 34 46 47 51 55 59 60 48 46 37 16 10 11 15 12 22 26 14 14 10 8 1 9 13 8 6 10 7 12 10 10 8 5 7 5 13 9 10 18 9 21 11
18 18 22 29 30 30 36 40 45 57 64 50 32 45 34 16 6 7 11 11 21 26 18 21 25 11 12 7 6 6 4 5 9 6 7 7 7 5 6 4 12 14 14 12 15 15 17

GFSGBSN_850_spd_057.txt.gz
Wind_Speed
16 17 18 20 21 21 23 23 20 20 21 22 23 23 22 21 20 20 20 20 20 21 21 21 21 20 21 9 23 18 14 13 13 13 15 13 13 16 10 8 16 6 5 17 19 16 2
17 16 16 17 18 18 21 24 24 23 20 21 22 23 23 22 21 21 21 21 19 19 20 19 18 19 16 12 12 8 13 16 17 16 16 14 14 19 20 14 9 16 15 15 15 18 7
18 16 18 19 18 16 17 19 19 24 25 20 21 22 23 24 24 22 21 21 18 18 18 17 16 17 21 34 10 9 15 18 14 18 16 12 14 20 17 10 16 21 9 8 13 12 6
18 20 20 20 20 20 19 17 16 18 20 25 20 20 22 24 25 25 22 21 18 17 18 14 15 14 16 23 17 20 24 17 17 16 19 15 15 19 11 19 17 9 7 5 13 10 7
21 21 20 21 23 22 21 20 19 19 18 19 23 22 20 23 25 26 24 23 18 18 18 14 14 8 17 7 15 23 20 21 17 17 17 19 14 6 10 5 6 5 8 12 17 12 5
22 22 22 24 24 22 22 23 20 21 20 19 18 22 22 21 22 25 24 23 16 20 18 12 8 7 14 14 12 8 18 20 21 18 17 17 7 4 3 2 7 10 6 9 7 8 6
24 25 25 26 26 24 24 24 23 23 20 21 20 19 19 19 20 22 22 16 7 5 8 13 8 14 20 13 10 13 16 21 22 19 9 14 4 11 11 14 18 16 12 7 5 2 5
27 27 27 27 27 26 27 26 24 23 23 22 21 19 16 20 18 21 18 10 5 8 13 20 28 35 38 31 15 14 15 19 20 15 10 8 17 13 15 17 17 13 6 8 6 8 2
28 28 28 29 28 28 29 28 28 26 24 22 24 21 18 17 17 21 15 14 12 13 7 24 32 30 44 33 21 29 20 31 9 12 12 14 13 17 18 18 16 6 6 7 7 1 3
30 29 29 30 30 29 28 26 25 25 24 22 20 20 21 14 13 8 7 11 0 4 5 7 11 12 25 24 11 35 25 28 8 18 15 11 21 19 18 17 5 6 10 11 7 1 4
30 30 31 32 32 31 29 27 25 25 22 22 21 16 14 12 8 12 2 4 7 6 6 7 6 8 9 26 14 23 34 22 21 18 11 16 9 20 19 6 7 9 7 4 4 5 2
33 34 34 34 33 30 29 27 25 23 22 20 19 17 13 15 18 14 12 7 9 3 10 6 8 7 9 23 9 1 27 33 17 19 17 14 22 14 16 8 10 7 3 4 4 1 4
37 37 36 35 33 31 30 27 25 23 21 20 18 18 17 14 20 6 8 7 3 7 5 7 5 9 7 9 16 10 11 16 15 14 19 19 21 17 13 8 5 7 4 1 4 2 6
39 39 38 36 34 32 30 28 26 24 21 20 19 18 19 20 16 10 9 2 9 11 16 4 5 8 8 7 14 19 15 13 16 16 7 15 16 18 9 13 8 10 7 5 6 4 6
39 38 36 35 33 33 31 30 28 25 22 19 18 21 24 20 16 15 6 8 11 8 11 14 20 15 13 8 7 16 19 20 14 21 17 12 21 7 15 6 9 4 6 7 5 2 4
40 39 36 35 34 32 31 30 29 27 24 20 22 23 28 21 15 17 7 16 17 19 14 18 10 6 8 6 10 10 8 11 21 19 19 8 8 22 12 11 9 9 4 5 3 5 5
41 40 38 37 35 34 32 30 30 28 26 22 25 13 16 25 20 14 14 19 19 23 19 11 13 13 19 17 12 17 8 15 15 20 22 23 12 9 14 14 13 4 9 4 3 4 6
43 41 41 40 38 36 35 34 32 31 29 27 26 6 20 34 15 12 22 15 15 17 22 19 8 12 16 17 13 15 13 12 17 9 22 15 8 15 15 9 19 16 12 9 5 5 4
42 39 39 40 40 39 38 37 35 33 34 34 17 12 31 46 11 18 20 27 26 19 12 11 14 10 16 18 11 2 10 12 25 12 17 9 14 6 7 8 9 19 8 9 9 5 8
42 41 41 40 40 39 39 38 39 36 37 39 15 5 11 41 37 23 23 25 23 12 25 29 18 18 21 17 15 5 4 10 31 22 29 24 9 18 17 4 6 6 12 13 10 4 6
42 41 41 40 40 40 38 37 36 36 39 44 20 7 14 11 23 21 17 4 21 17 20 19 14 24 21 11 15 12 4 10 19 27 13 10 15 14 11 11 14 16 12 16 14 14 10
41 41 40 40 39 37 36 35 34 37 45 51 16 9 18 11 25 22 19 25 26 17 17 18 20 23 11 19 19 12 5 3 1 14 10 10 3 9 16 18 15 10 15 15 17 16 12
41 40 38 36 36 36 37 37 38 39 41 36 31 32 22 16 15 16 27 33 27 18 25 25 20 19 21 26 18 5 11 8 4 3 10 10 3 5 17 19 18 16 16 21 15 12 11
32 33 34 36 36 37 38 38 40 43 45 46 29 25 14 5 16 23 26 27 25 19 22 21 21 15 42 14 8 7 7 0 3 2 6 10 14 3 4 4 14 7 11 10 16 14 6
34 34 35 36 38 39 40 41 43 46 48 49 27 23 20 10 16 21 24 20 30 23 25 21 34 36 24 24 13 3 4 4 4 1 8 13 14 3 7 9 5 12 8 4 7 8 7
34 34 37 39 40 41 44 46 46 47 49 49 43 31 9 5 11 32 17 25 14 15 17 28 41 32 23 8 5 13 7 3 4 3 6 11 16 5 3 3 17 2 8 11 3 9 4
33 32 33 35 38 39 41 43 50 50 52 53 42 39 27 3 17 30 14 18 28 18 12 16 23 16 26 5 5 8 8 4 5 6 3 2 8 4 3 1 6 5 8 8 7 4 6
26 27 28 29 33 36 38 42 45 52 50 53 49 39 39 8 13 25 19 10 24 27 11 12 11 12 4 7 5 4 5 9 5 6 6 6 4 1 0 3 5 8 8 6 4 20 19
21 26 30 33 33 35 39 38 42 46 49 50 34 44 40 28 4 20 16 20 26 21 16 20 12 6 10 3 3 4 3 4 8 9 6 5 7 6 7 5 5 19 8 9 15 22 14

GFSGBSN_850_spd_060.txt.gz
Wind_Speed
14 13 13 12 13 15 16 17 21 20 18 19 22 24 26 22 22 22 21 19 19 19 19 20 19 19 20 8 25 18 22 10 11 12 11 11 11 10 5 4 7 6 8 17 18 5 7
14 14 14 14 14 13 12 14 16 18 20 22 20 21 26 26 23 23 22 22 21 19 19 18 18 18 15 10 16 10 10 11 11 14 14 13 16 10 11 9 2 8 15 19 18 16 14
16 16 17 17 16 15 15 15 15 16 17 17 18 21 22 26 26 25 23 22 22 21 19 17 16 16 17 31 14 10 14 16 12 11 17 15 16 16 8 6 7 13 7 11 12 8 6
18 18 17 17 17 17 17 18 17 17 18 17 17 17 21 24 25 27 25 23 22 19 20 17 15 14 16 16 17 26 30 26 16 13 14 12 13 17 16 11 9 5 5 3 7 4 6
19 20 19 17 18 18 17 19 20 19 18 19 18 16 18 23 23 25 26 25 22 18 21 16 13 11 18 11 13 9 24 31 21 15 13 13 15 18 10 3 5 2 5 5 10 9 7
19 22 21 18 18 20 20 19 21 21 20 19 18 18 19 21 21 23 26 24 18 19 17 14 7 8 19 18 7 11 9 21 18 14 17 16 9 4 2 4 6 5 4 4 9 8 5
22 23 23 21 22 22 21 20 20 21 19 20 21 18 18 18 17 20 24 17 7 4 3 12 10 13 22 14 15 10 8 17 20 14 9 5 4 13 10 9 7 4 6 10 13 5 4
23 25 24 22 22 22 21 21 22 22 22 21 20 20 18 17 17 16 17 14 2 10 15 24 25 36 41 33 17 22 7 17 14 12 7 4 16 14 8 8 9 8 11 15 8 7 4
25 26 23 22 22 22 21 22 22 21 22 23 21 18 18 20 19 13 13 12 10 20 7 15 31 28 41 27 28 33 14 23 8 8 12 14 5 15 12 12 13 13 11 15 9 4 4
26 24 25 23 23 23 24 23 23 23 21 19 19 17 15 15 14 9 7 4 16 11 4 8 8 15 24 18 11 41 30 14 6 16 11 9 18 13 8 15 11 11 10 6 7 4 4
25 26 24 24 24 25 26 25 24 23 20 20 17 16 14 12 10 11 4 12 9 7 5 6 6 5 11 22 10 16 38 21 14 14 10 9 8 12 17 18 13 12 14 6 5 3 2
27 26 27 28 27 27 26 25 23 22 18 18 16 14 14 15 20 15 14 10 1 1 9 6 6 8 9 14 4 3 22 20 10 7 9 10 17 5 12 14 14 14 4 1 4 2 3
28 28 29 29 29 28 28 26 24 21 18 17 18 16 15 17 20 7 8 4 3 7 4 5 4 7 5 7 6 1 14 14 9 9 16 15 20 14 11 11 9 6 5 2 3 2 7
30 29 31 31 32 31 30 27 23 22 19 18 18 17 17 20 13 8 6 3 12 5 10 4 5 10 3 4 5 3 3 11 15 4 6 12 7 18 11 16 7 8 9 6 6 4 5
32 31 32 32 33 31 28 25 26 22 20 17 17 19 21 19 13 10 6 9 7 5 5 6 15 7 3 3 5 7 9 7 9 16 6 7 9 7 14 11 7 7 5 9 5 2 2
31 32 33 34 33 32 29 27 26 24 22 18 21 22 27 18 16 14 6 17 8 6 7 9 2 4 4 6 6 5 4 2 8 9 10 4 5 8 18 9 12 13 6 3 1 5 8
34 34 35 36 34 34 31 29 28 26 25 22 25 12 19 25 21 13 12 12 10 18 12 3 4 4 4 5 4 2 2 12 2 4 18 8 10 12 4 9 11 2 3 2 5 5 6
35 37 38 37 37 36 35 32 30 28 25 25 23 5 11 31 13 11 19 12 6 11 13 12 6 6 7 4 4 4 4 4 10 5 4 12 6 12 24 14 5 20 11 10 5 5 3
40 41 40 39 37 34 36 35 33 32 30 29 12 10 27 40 11 17 14 14 21 11 2 4 7 11 5 3 4 6 3 9 4 4 7 8 6 8 6 14 16 11 8 12 6 4 11
45 42 41 38 38 37 35 35 37 35 33 32 13 5 11 35 25 13 20 19 18 16 24 27 11 8 6 8 6 7 3 6 11 3 11 4 7 15 18 6 5 5 8 15 12 5 5
44 44 42 42 41 38 37 37 38 37 38 36 18 8 12 10 19 16 12 9 23 19 17 9 8 21 6 5 2 11 6 3 3 8 5 5 7 12 18 16 17 6 9 10 14 9 10
43 42 41 40 39 38 38 40 39 40 38 43 13 9 10 1 23 22 21 25 23 15 12 14 17 10 15 18 8 13 10 10 5 2 3 7 5 14 19 19 17 19 17 19 17 6 6
41 39 38 38 38 37 37 38 40 42 45 36 36 19 13 14 12 16 31 22 16 16 16 22 14 13 16 7 18 20 14 9 0 2 2 4 6 9 6 6 13 8 25 22 8 6 5
35 34 35 36 36 37 37 38 39 39 45 38 25 17 14 8 17 25 14 21 20 18 19 16 20 11 14 14 11 3 3 4 5 5 6 6 4 1 7 8 13 18 5 10 11 13 13
32 30 29 29 29 30 30 32 36 39 42 48 32 20 12 10 16 19 24 15 22 28 23 20 25 25 25 21 2 4 3 5 5 6 9 5 6 3 3 5 8 13 8 15 15 20 14
27 29 29 29 29 31 33 34 36 37 41 46 38 41 8 3 15 28 15 20 13 15 14 25 30 26 19 1 3 7 5 3 3 5 6 7 7 5 3 6 8 2 11 7 3 6 5
28 30 31 32 33 34 35 36 38 39 40 44 33 41 28 4 10 21 13 19 21 14 5 5 9 17 21 3 2 5 8 6 8 7 5 1 1 3 3 4 8 5 8 8 8 5 5
28 30 29 30 32 33 36 41 43 44 42 44 41 30 36 14 17 7 25 13 21 25 9 5 5 5 4 7 4 5 4 7 2 5 8 7 6 4 2 2 8 4 9 3 2 7 14
25 23 24 25 29 30 34 37 39 40 46 45 35 40 29 14 7 13 24 22 21 32 27 18 8 6 11 4 4 3 2 0 6 7 3 2 6 6 7 8 18 7 3 6 5 10 13

GFSGBSN_850_spd_063.txt.gz
Wind_Speed
12 12 13 13 14 14 14 14 14 15 16 19 22 24 23 21 22 24 25 25 23 21 20 20 21 21 19 6 25 15 16 18 11 11 11 10 13 6 3 3 1 5 4 9 19 19 11
14 15 15 14 15 14 14 15 16 15 16 16 17 19 23 23 24 23 25 26 24 23 20 18 19 21 12 7 14 11 15 17 17 14 14 13 7 8 5 4 3 3 9 16 15 9 9
15 15 15 14 13 14 16 17 16 15 16 17 17 16 18 20 23 25 25 27 26 23 20 17 18 18 15 28 19 16 11 14 16 15 13 13 14 10 2 6 3 4 8 8 7 4 8
16 16 15 15 15 14 15 16 16 17 18 18 18 19 19 21 20 22 25 25 29 21 20 17 17 15 15 19 25 24 23 20 19 18 14 11 11 9 5 7 6 5 3 3 4 1 4
17 17 18 17 17 17 17 16 17 18 19 18 20 19 19 21 22 24 22 23 23 22 21 16 14 11 18 15 17 4 7 24 27 21 15 14 8 8 5 4 4 3 6 5 8 3 2
19 19 19 20 19 19 20 19 18 18 18 18 19 21 21 22 22 23 25 22 18 14 12 9 7 8 21 19 9 6 9 8 16 18 17 11 10 4 2 4 7 5 4 4 4 5 4
21 21 21 22 20 21 22 18 16 18 19 18 20 20 20 22 22 20 23 24 6 2 4 11 9 12 13 9 14 9 6 9 13 14 7 7 4 12 14 8 3 3 3 5 8 12 3
22 22 22 22 21 21 19 18 16 18 19 19 20 20 20 20 21 19 18 11 4 9 14 24 29 36 43 33 21 24 8 10 10 7 7 3 17 6 7 7 5 5 5 13 11 11 6
22 22 23 21 20 19 19 20 18 18 18 19 19 20 19 19 20 17 12 3 9 14 7 12 26 31 35 25 26 41 22 7 6 7 9 11 5 16 15 6 7 8 6 10 11 6 3
21 23 24 20 21 22 21 19 20 20 19 19 18 17 16 16 17 10 5 5 11 10 4 7 8 12 17 14 10 43 25 18 7 14 6 8 14 1 4 10 8 9 9 12 14 3 5
23 24 24 22 24 22 21 21 20 19 17 19 18 16 14 15 11 10 2 7 11 2 5 4 5 4 9 17 4 9 39 22 9 9 8 9 8 12 13 14 9 9 7 10 8 6 1
25 25 24 24 24 24 22 22 22 19 19 18 17 15 14 17 20 14 15 12 1 1 8 6 5 5 7 10 5 5 19 11 20 4 3 12 5 9 10 8 13 8 3 4 1 2 5
27 27 27 27 25 24 23 24 22 19 20 18 17 15 18 19 19 8 8 5 3 6 6 6 2 4 3 5 5 3 8 10 8 10 11 6 13 2 4 5 5 5 3 2 3 2 8
29 29 28 27 26 25 24 24 22 21 22 19 18 17 20 23 14 10 7 3 11 4 7 6 6 9 4 5 4 2 7 8 7 3 4 9 6 14 6 13 4 7 10 5 6 4 6
29 29 29 27 26 27 26 25 24 23 22 20 18 21 24 25 15 11 4 8 5 5 4 7 8 3 4 4 2 2 1 5 9 8 6 6 6 4 9 9 11 5 6 10 6 1 1
32 31 30 27 27 28 27 26 25 23 22 20 22 23 28 24 18 15 4 15 9 1 8 4 4 5 6 7 5 4 3 3 2 10 8 3 2 4 4 5 6 9 4 2 2 5 7
34 33 31 30 29 29 29 28 28 24 23 22 24 12 16 26 20 13 8 9 11 22 10 5 2 4 3 4 5 4 1 3 4 6 2 7 4 7 7 5 6 2 4 4 2 5 8
34 34 33 33 31 31 30 30 31 27 24 25 23 5 20 32 10 6 13 11 15 3 4 9 3 5 5 3 4 2 3 2 6 3 3 2 2 9 23 14 3 5 7 10 7 4 4
35 34 33 33 33 33 34 34 31 33 29 22 13 9 29 40 11 12 9 12 13 2 1 1 5 3 2 3 4 4 4 7 12 5 3 5 4 4 8 6 3 9 6 5 2 2 12
36 36 38 39 41 40 37 36 31 34 35 30 11 5 10 27 11 17 13 15 13 20 17 8 3 5 3 3 3 4 5 6 18 2 5 2 1 4 4 8 5 4 9 15 10 8 7
41 43 42 41 40 38 37 35 34 35 38 32 17 6 10 7 17 9 17 9 20 12 16 17 9 16 8 4 3 6 5 4 6 1 3 3 2 7 13 15 16 19 10 12 18 12 11
45 47 43 42 42 41 40 40 38 38 37 38 10 7 10 2 23 20 18 19 19 17 8 12 8 6 6 14 11 5 7 3 4 4 4 4 3 2 4 12 20 18 18 23 11 5 7
45 44 43 43 42 42 41 41 41 41 36 28 29 14 10 12 13 16 24 21 16 14 15 24 13 13 10 13 18 26 21 18 10 6 3 4 3 0 6 10 18 7 14 15 17 19 6
45 44 42 40 39 39 40 42 42 44 43 41 26 19 12 6 15 18 16 21 23 18 19 16 26 8 10 8 11 12 16 18 14 10 7 6 5 4 3 2 5 7 25 17 18 19 13
37 38 36 35 34 35 37 40 41 43 45 46 33 30 22 12 9 16 17 17 25 27 19 22 20 21 20 16 2 5 3 2 7 7 8 6 4 3 2 2 8 12 6 13 10 17 13
23 28 30 30 29 30 32 36 40 42 43 44 40 33 22 7 14 14 14 20 11 14 11 19 23 19 9 0 1 4 3 3 1 4 4 5 3 3 3 3 6 2 5 22 15 16 6
26 26 26 26 28 28 28 28 31 34 37 46 29 43 20 6 7 18 8 14 19 15 5 11 19 15 27 2 1 5 5 3 4 8 4 3 1 5 4 4 7 7 6 12 2 5 7
25 27 27 28 29 31 31 31 30 31 31 34 25 34 37 10 8 10 16 9 26 27 8 10 8 7 4 6 4 4 3 5 6 5 7 7 7 4 2 3 8 5 8 7 16 25 8
25 26 26 30 30 32 35 33 33 34 34 33 21 22 27 16 5 20 24 13 12 27 31 22 11 8 10 4 2 3 3 0 4 4 4 6 7 5 9 6 4 11 7 9 14 22 33

GFSGBSN_850_spd_069.txt.gz
Wind_Speed
11 11 12 13 14 14 13 14 15 15 17 16 16 17 18 19 20 20 21 22 24 25 23 21 21 21 17 11 16 16 9 8 12 15 12 13 17 9 6 6 7 6 7 7 13 10 13
13 12 12 12 11 13 12 14 14 15 15 16 17 17 18 19 20 21 22 23 23 23 23 21 20 22 13 10 10 9 11 19 18 15 13 15 9 14 6 5 9 6 11 10 9 14 10
15 14 14 14 14 14 15 15 15 16 15 16 17 18 18 19 21 22 23 22 22 23 23 22 21 20 16 27 18 25 21 17 13 18 21 21 16 9 7 2 10 4 5 7 7 6 4
16 17 15 15 17 16 16 16 16 18 17 17 17 17 18 20 22 24 26 26 23 24 22 21 20 17 13 21 23 26 22 21 20 16 16 14 13 11 6 3 2 2 1 5 1 4 0
17 18 19 15 17 17 18 18 17 18 17 16 16 18 19 20 23 26 29 27 23 24 18 16 13 12 12 16 15 6 15 18 19 19 18 7 11 6 5 4 3 1 5 6 5 2 5
20 20 20 18 19 18 20 20 17 17 15 16 17 18 19 22 23 25 30 28 17 10 7 1 3 6 16 13 6 6 2 7 8 22 12 10 5 4 4 8 12 10 5 5 8 4 1
19 19 21 21 19 19 19 19 18 16 15 17 17 18 19 19 22 24 28 21 5 3 6 8 8 14 13 9 10 9 10 6 10 15 11 8 8 13 19 16 3 6 6 6 4 4 3
21 20 21 21 20 19 19 18 15 15 17 16 16 19 18 17 20 23 18 6 7 8 15 24 30 35 38 24 7 14 12 5 8 7 7 5 17 11 10 10 11 6 7 8 11 4 7
22 19 22 23 19 19 21 18 15 17 17 15 16 18 16 16 19 17 9 1 1 17 7 17 15 17 17 21 21 26 9 9 6 9 14 18 6 14 14 10 12 14 18 13 11 5 5
22 20 21 24 23 19 22 19 16 18 15 16 15 15 13 14 13 9 9 2 7 16 4 7 5 4 6 11 9 37 23 17 5 11 10 13 13 10 11 18 17 15 12 12 9 3 6
23 21 23 24 22 20 24 20 18 18 16 14 15 14 9 12 14 13 13 10 8 5 5 1 2 2 6 9 9 0 24 14 19 9 6 9 10 17 8 15 13 12 9 12 9 7 4
24 23 23 25 23 22 22 22 20 19 16 15 16 12 10 13 16 13 12 8 6 1 7 6 1 1 4 11 5 4 7 7 11 8 3 8 4 8 15 8 17 7 3 2 2 2 6
24 22 24 25 24 23 22 25 23 20 16 17 16 14 13 13 11 8 8 4 1 5 5 6 5 5 7 4 4 4 4 12 6 9 11 9 9 3 3 12 8 6 4 2 2 4 7
26 24 23 24 23 26 25 24 21 20 17 17 17 17 16 17 15 10 5 1 9 4 5 5 5 12 2 3 2 5 4 6 9 3 6 10 8 11 6 6 8 14 14 5 7 5 3
28 27 28 24 26 24 22 22 23 19 18 15 17 19 20 19 16 11 4 5 3 6 3 8 11 2 5 5 3 1 4 1 4 7 4 7 8 3 9 8 10 6 9 10 1 1 2
27 26 24 27 27 23 21 23 22 19 17 13 17 17 23 20 16 17 4 7 5 1 4 4 3 6 7 9 7 7 3 8 6 2 2 3 2 3 4 6 6 8 9 4 2 5 10
31 27 28 27 27 25 26 25 23 18 16 14 16 9 10 15 18 14 6 7 6 21 8 2 3 4 4 4 4 5 8 2 12 9 4 1 1 1 2 4 9 5 8 3 4 3 7
29 31 29 29 27 28 26 25 22 19 16 17 14 5 11 20 11 4 5 7 6 6 2 4 2 4 2 4 5 4 4 3 17 8 4 4 2 3 5 7 4 2 3 7 6 8 3
31 30 31 28 28 27 26 24 20 18 15 14 7 11 16 28 9 10 3 5 6 4 6 2 2 1 1 1 3 2 4 4 15 11 5 6 2 1 0 1 5 6 5 7 6 3 13
34 34 33 32 31 28 28 24 21 17 17 15 6 3 12 26 13 16 10 9 8 9 9 1 2 1 0 0 1 3 3 4 14 8 14 3 3 2 2 2 1 2 4 3 2 3 6
35 35 35 34 33 30 28 26 25 22 21 18 12 6 7 5 13 11 14 11 13 9 10 6 4 6 4 1 3 4 2 4 5 8 3 2 4 6 7 9 8 7 10 9 9 9 8
39 37 35 35 34 33 32 30 28 25 24 26 15 8 6 3 8 17 17 11 17 14 10 7 10 7 11 10 10 9 4 3 4 5 6 8 1 1 2 9 11 12 11 13 9 3 2
42 39 36 36 36 35 35 33 34 33 30 28 31 27 11 15 9 8 7 17 17 13 14 13 10 10 10 9 11 18 19 14 10 7 4 4 1 3 3 3 4 7 12 16 8 7 6
37 38 38 38 38 38 39 39 40 40 40 42 24 21 13 10 7 12 9 16 17 20 14 15 20 10 3 1 9 7 12 15 14 12 13 3 2 1 1 2 6 3 6 6 10 11 11
24 26 32 34 35 35 35 37 39 41 42 44 36 21 13 8 13 11 14 17 20 19 18 18 21 16 14 11 2 4 2 2 7 13 13 12 5 3 3 5 8 11 6 2 5 6 6
26 25 27 28 29 31 32 34 40 43 42 44 43 39 15 5 12 20 7 17 11 11 8 22 19 9 7 2 3 4 4 2 1 1 6 12 10 6 3 2 4 4 2 1 2 6 4
28 28 28 29 29 27 27 27 33 39 42 44 34 46 28 11 7 25 12 13 14 14 5 6 11 7 13 4 4 5 4 1 2 3 4 6 6 11 6 5 7 9 4 2 1 4 5
27 28 29 30 30 30 28 26 30 36 39 43 43 35 43 11 17 20 27 18 10 19 6 10 6 6 4 6 4 4 3 4 4 3 6 8 7 4 4 5 9 4 2 2 6 16 13
32 30 30 29 24 29 28 28 26 33 35 43 32 39 33 28 6 27 24 29 35 33 25 20 9 7 10 4 4 3 3 2 6 4 2 4 6 5 8 6 2 2 4 15 14 18 22

GFSGBSN_850_spd_072.txt.gz
Wind_Speed
12 10 10 10 10 10 10 11 12 13 13 15 15 15 17 18 18 18 20 20 21 19 19 20 20 20 17 6 17 20 18 8 9 18 14 16 17 18 15 13 14 19 16 15 17 16 15
13 15 14 11 10 12 10 13 14 12 13 14 15 16 16 18 18 19 21 22 21 20 21 21 20 20 10 12 17 12 9 14 12 16 13 15 11 16 9 15 15 5 16 19 19 17 17
15 14 17 14 14 15 14 14 14 14 15 15 15 16 17 18 20 21 23 23 22 21 21 21 20 18 13 26 21 21 19 14 16 16 17 15 13 11 8 11 18 14 15 15 17 21 18
16 14 15 19 13 14 15 16 16 16 15 14 15 16 18 20 22 23 24 25 23 22 21 19 17 12 12 18 22 24 23 22 23 19 16 16 16 18 14 6 6 12 12 14 8 10 8
17 17 16 18 19 15 17 16 18 16 15 14 15 17 18 20 22 24 26 26 24 19 16 14 10 8 12 14 16 14 20 22 17 20 16 8 12 19 14 14 13 13 14 13 12 12 6
19 17 17 20 20 19 18 16 17 16 14 14 15 16 18 21 22 23 26 24 14 9 6 1 1 5 12 5 8 5 4 7 8 16 14 15 14 12 14 15 19 17 16 14 14 7 11
20 18 17 18 20 20 17 17 17 14 10 12 17 17 17 20 20 22 25 16 6 5 4 9 7 16 15 6 10 10 6 9 5 21 19 25 15 19 25 22 20 15 14 15 10 2 8
19 21 19 17 19 21 18 15 18 14 13 13 16 15 17 17 17 19 13 5 3 7 14 21 27 31 33 23 14 14 14 10 12 16 19 11 21 21 18 16 20 19 16 17 12 6 9
20 21 21 20 18 19 19 15 20 12 14 15 13 15 14 14 14 10 8 1 4 12 9 13 10 11 10 18 22 23 17 16 11 19 18 21 11 19 17 17 18 21 20 17 16 6 12
22 21 19 19 19 20 21 15 20 18 14 13 12 12 12 11 9 7 3 5 10 11 5 2 2 3 4 7 8 26 18 10 11 17 15 15 20 11 19 23 20 21 19 17 17 9 10
22 21 21 20 20 19 18 17 19 16 15 13 11 12 12 8 8 7 8 9 7 5 6 3 3 3 4 8 10 2 15 24 15 12 8 10 13 20 20 20 20 20 15 11 17 16 15
22 22 24 23 20 20 17 19 18 17 19 13 12 12 12 7 9 9 8 5 5 5 6 1 2 3 5 10 4 4 4 17 15 17 15 15 8 10 19 14 15 4 8 8 7 9 12
20 21 20 20 20 24 19 16 18 18 16 14 13 13 13 9 6 7 6 4 5 6 3 2 4 7 10 4 4 6 8 15 10 9 13 14 17 12 12 17 15 16 11 6 8 7 8
23 21 19 20 24 20 16 17 23 17 16 15 14 16 14 14 10 9 4 5 9 2 5 6 6 12 3 5 2 7 6 8 15 12 9 11 12 20 13 14 10 21 19 7 9 9 7
26 27 26 23 23 23 18 18 16 16 17 15 14 14 15 15 14 11 5 9 4 6 2 6 9 4 2 4 5 6 5 2 2 16 8 12 15 14 15 14 13 15 20 16 15 5 5
25 25 23 23 21 21 22 21 15 14 14 12 12 11 16 14 14 16 4 15 7 3 3 3 4 4 3 8 4 4 3 10 6 1 12 4 6 13 18 16 19 13 10 7 10 10 15
27 28 25 27 22 24 19 17 16 17 14 11 10 7 8 12 17 11 8 9 13 16 5 4 3 4 3 4 7 5 6 6 13 11 7 8 4 5 6 14 18 14 12 10 7 12 10
27 27 24 23 24 20 23 20 19 18 14 13 7 4 9 16 11 4 9 9 8 11 10 8 4 7 6 4 4 6 2 5 14 15 4 4 3 5 7 6 3 13 18 17 11 12 8
29 27 26 25 25 24 20 20 19 16 16 11 7 12 12 17 7 7 5 13 19 15 11 5 7 6 3 4 4 2 3 3 7 10 8 7 2 6 10 6 2 8 2 5 6 8 14
29 27 26 28 27 26 23 22 20 18 19 17 6 3 15 18 19 17 18 15 6 16 14 9 7 4 6 10 8 5 3 4 15 10 12 4 4 4 3 2 3 4 3 2 5 7 11
30 31 30 29 29 28 27 25 22 23 20 20 13 6 9 5 11 9 16 10 21 16 15 14 9 15 14 11 10 11 10 8 5 8 4 4 6 7 6 4 4 6 7 6 8 8 9
34 33 33 31 29 32 31 29 26 26 23 27 10 8 8 12 12 10 9 16 23 21 15 12 13 8 14 16 12 8 6 7 7 3 5 5 5 5 9 8 10 13 13 12 12 11 11
35 34 35 38 35 33 34 33 30 29 29 23 24 16 11 9 14 12 10 18 18 20 18 20 12 11 13 14 13 12 12 13 12 8 4 4 3 5 9 3 7 10 17 18 16 11 11
29 26 26 30 38 37 37 37 35 34 36 34 18 18 14 11 11 13 19 16 20 20 20 17 18 11 3 0 7 11 12 13 14 15 14 6 5 2 2 4 6 2 1 4 8 11 10
28 26 26 25 24 32 36 37 37 39 39 38 34 23 16 12 19 23 21 11 20 25 21 20 15 12 9 4 3 5 6 7 11 17 15 14 8 3 4 9 13 16 10 8 7 2 3
31 26 25 23 22 26 31 36 38 38 39 47 44 36 19 6 18 30 21 18 10 12 15 22 3 12 8 3 4 4 5 3 5 6 13 14 13 8 5 5 5 3 3 3 2 4 7
29 28 25 24 25 24 27 29 32 35 38 39 40 46 35 20 23 10 16 17 16 8 6 7 9 7 12 5 6 6 6 2 4 5 5 8 10 13 11 7 4 8 6 4 5 4 13
29 27 27 25 24 27 28 28 27 30 32 41 43 43 46 21 29 23 23 25 20 22 9 7 6 4 4 7 5 4 5 7 6 3 7 8 9 7 9 8 9 3 3 7 8 12 14
24 26 29 28 25 26 29 28 30 29 27 38 32 42 35 32 10 24 32 22 22 19 16 17 7 7 10 7 6 4 4 3 8 7 13 6 7 5 8 8 4 3 3 10 9 11 14